GEFSGL_500_meanwind_114.txt.gz
Wind_Speed
23 25 25 26 26 26 27 27 26 25 24 22 21 20 19 16 12 9 7 5 7 10 13 16 19 22 25 27 28 30 32 33 35 38 38 39 39 38 37 37 37 36 36
22 23 25 25 26 26 26 26 26 25 24 23 22 21 20 17 15 11 8 5 5 7 10 13 16 19 23 25 26 28 30 32 33 35 37 39 38 37 38 37 37 36 35
21 22 24 25 25 26 26 26 26 25 24 24 23 22 21 19 16 14 10 7 4 4 7 10 13 17 20 23 24 26 28 30 32 33 35 36 37 38 38 38 37 37 37
20 21 23 23 24 25 25 25 25 25 24 24 23 22 21 20 17 15 13 9 6 4 4 6 9 13 16 19 22 24 25 27 29 30 32 33 35 36 37 37 37 37 37
20 20 21 22 23 24 24 24 24 24 24 24 22 22 21 20 18 16 14 11 8 6 4 4 5 9 12 15 18 20 23 25 26 28 30 31 32 33 35 35 36 36 36
19 20 20 21 22 23 23 24 24 23 23 23 23 22 21 20 19 18 15 12 9 7 5 3 3 5 9 12 14 17 20 22 24 26 27 29 30 32 34 35 36 36 36
18 19 20 21 21 22 22 23 23 22 22 23 22 21 21 20 19 18 17 14 10 8 6 4 3 4 6 9 12 14 16 19 21 24 24 26 28 30 33 34 35 36 37
18 19 20 20 21 21 21 22 22 22 21 22 22 21 21 20 19 18 17 15 12 9 7 5 4 4 6 8 10 11 14 16 19 22 24 24 26 27 29 31 33 34 34
18 18 19 20 20 21 21 21 21 21 21 21 21 21 20 20 19 18 17 15 13 11 9 7 5 4 5 7 9 11 12 14 17 20 22 22 23 25 27 29 31 32 33
18 18 19 20 20 20 20 20 21 21 21 21 20 20 20 19 18 17 16 15 13 12 10 8 7 6 5 6 7 9 11 13 15 18 21 22 22 24 25 26 28 29 30
18 18 19 20 20 20 20 20 20 20 21 21 20 20 19 19 18 17 16 15 14 12 11 9 8 7 7 7 8 9 10 12 15 17 19 20 21 23 25 26 28 29 30
18 19 19 20 20 20 20 20 20 20 21 21 20 20 20 19 17 16 16 15 14 13 12 10 9 8 8 8 9 10 11 12 13 15 18 20 21 23 25 26 27 29 30
19 19 20 20 20 20 20 21 21 21 21 21 20 20 20 19 18 17 16 15 14 14 13 12 11 10 10 10 10 11 12 13 14 15 17 19 21 23 24 26 27 28 29
20 20 20 20 20 20 21 21 22 22 21 21 20 20 19 19 18 17 16 16 15 14 14 13 13 12 12 12 12 12 13 14 15 16 17 19 20 22 24 26 27 28 29
21 21 21 21 21 21 22 22 22 23 22 22 21 21 20 19 18 18 17 17 16 16 15 15 15 14 14 14 14 14 15 16 17 18 18 19 21 23 24 26 28 29 30
22 22 22 22 22 23 23 23 23 24 23 22 22 22 21 21 20 19 19 18 17 17 17 17 17 17 17 17 17 18 18 19 19 20 21 22 23 24 26 27 29 30 30
23 23 23 24 24 24 25 25 26 26 25 24 23 23 23 23 22 21 21 20 20 19 19 19 19 20 20 20 21 21 22 22 23 23 24 24 25 26 27 28 30 31 33
24 24 24 25 25 26 26 27 27 28 27 26 25 25 25 24 23 23 22 22 22 22 22 22 22 23 23 24 24 25 25 26 27 27 27 28 28 29 30 31 32 33 34
26 26 26 26 27 27 27 28 29 29 28 27 27 27 26 26 25 25 25 25 25 25 25 25 26 26 27 27 27 28 29 29 30 30 31 31 32 32 33 33 34 35 35
27 28 28 28 28 29 29 29 29 29 28 28 28 28 28 28 28 28 28 28 28 28 28 28 29 29 30 30 30 31 31 32 32 33 34 35 35 35 36 36 37 37 38
29 30 30 30 30 30 31 30 30 30 29 30 30 30 30 31 31 31 31 31 31 31 31 32 32 32 33 33 34 35 35 35 36 37 37 38 38 39 39 39 39 40 41
32 32 32 32 32 32 32 32 32 32 32 32 32 32 32 33 33 33 34 34 34 34 34 34 35 35 36 36 37 37 38 39 39 40 41 41 42 42 43 43 43 43 43
34 34 34 34 34 34 34 34 34 34 34 34 35 35 35 35 36 36 36 36 36 36 37 37 38 38 38 39 40 41 41 42 43 44 44 45 45 46 46 46 46 46 46
37 37 37 37 36 36 36 36 36 36 36 36 37 37 37 38 38 38 38 38 38 38 39 40 40 41 41 42 42 43 44 45 45 46 47 47 47 48 48 48 48 48 48
39 39 39 38 38 38 38 37 38 38 38 38 39 39 39 40 40 39 39 40 40 40 41 41 42 42 43 44 45 46 46 47 47 48 49 49 49 49 49 49 49 49 49
40 40 40 40 40 40 39 39 40 40 40 40 40 41 41 41 41 41 41 41 42 42 43 43 44 45 46 46 47 48 49 50 50 50 50 50 50 50 50 50 50 50 50

GEFSGL_500_meanwind_120.txt.gz
Wind_Speed
15 17 18 20 21 21 21 22 22 21 21 20 19 18 16 14 12 9 6 4 4 6 8 11 15 17 20 22 24 26 29 29 31 33 36 37 38 38 38 37 36 36 36
15 16 17 18 20 21 21 21 21 21 21 20 20 19 17 15 13 10 7 5 3 4 7 9 13 15 18 21 22 24 26 28 29 31 34 35 36 36 37 37 37 37 36
15 16 17 18 19 20 20 21 21 21 21 21 20 19 18 16 14 12 9 6 4 3 4 7 10 13 15 18 20 22 24 26 28 29 32 33 34 35 36 37 38 37 37
14 15 16 17 18 19 19 20 20 20 20 20 20 19 18 16 15 13 10 7 5 3 3 6 8 11 13 15 18 20 23 25 26 27 29 32 33 34 35 36 38 38 37
14 15 16 16 17 17 18 18 19 19 20 20 19 18 18 16 15 14 11 9 6 4 2 3 5 8 11 13 15 18 21 23 24 25 26 29 31 32 34 35 36 37 37
14 15 15 16 16 16 17 17 18 18 19 19 19 18 17 16 15 14 12 10 8 6 4 3 4 6 8 11 13 16 18 20 22 23 24 26 27 28 30 33 34 35 36
14 14 15 15 16 15 16 16 17 17 17 18 18 18 17 16 15 14 13 11 8 7 5 4 3 3 6 8 11 13 16 18 19 21 23 24 25 27 28 30 32 32 32
14 14 15 15 15 15 15 15 16 16 16 17 17 17 16 15 15 14 14 12 10 8 6 5 3 2 3 6 8 11 13 15 18 19 20 22 24 25 27 29 31 32 33
14 14 14 15 15 15 15 15 15 15 16 16 16 16 15 15 14 14 13 12 11 9 7 6 4 3 3 4 6 9 11 14 16 18 19 20 22 23 24 27 30 31 32
14 14 15 15 15 15 15 15 15 15 15 16 15 15 15 14 14 14 13 12 11 10 8 7 5 5 5 5 5 7 9 12 14 16 18 20 21 23 24 25 27 29 31
15 15 15 15 15 15 15 15 15 16 16 16 15 15 14 14 14 13 13 12 11 10 9 8 7 6 6 6 6 7 8 10 12 14 16 18 19 21 23 24 26 28 30
16 16 16 16 16 16 16 16 16 16 16 16 15 15 14 14 14 14 13 13 12 11 10 9 8 7 7 7 8 8 9 10 12 14 15 16 18 19 20 22 24 26 28
17 17 17 17 17 17 17 17 17 17 17 16 16 15 15 15 15 14 14 14 13 12 11 11 10 10 9 9 9 10 11 12 13 14 15 17 19 20 20 21 23 26 28
18 18 18 18 18 18 17 17 17 18 17 17 17 16 16 16 16 15 15 15 14 14 13 13 12 12 12 11 12 12 13 14 15 15 17 18 19 21 22 23 24 25 27
19 19 19 19 19 19 18 18 18 18 18 18 18 17 17 17 17 16 16 16 16 15 15 15 14 14 13 13 14 14 15 16 16 17 18 20 21 22 23 24 25 26 27
21 20 20 20 20 20 19 19 19 19 19 19 19 19 18 18 18 17 17 17 17 17 17 17 17 17 16 16 16 16 17 17 18 19 20 21 22 23 25 26 27 28 29
23 22 22 22 21 21 21 21 21 20 20 20 20 20 20 20 19 19 18 18 19 19 19 19 19 19 19 19 19 20 20 21 21 22 22 23 24 25 27 28 29 30 31
25 24 24 23 23 23 23 23 22 22 22 22 22 22 22 21 21 20 20 20 21 21 21 21 22 22 22 23 23 23 24 24 24 25 25 26 26 27 28 29 30 31 32
27 26 26 25 25 25 25 25 25 25 25 24 24 24 23 23 22 22 23 23 23 24 24 24 25 25 25 26 26 26 27 27 27 28 28 28 29 30 31 31 32 33 35
28 28 28 27 27 27 27 27 27 27 27 26 26 26 25 25 25 25 25 26 26 26 26 27 27 28 28 28 29 29 30 30 30 31 31 32 32 33 34 35 36 37 38
30 30 30 29 29 29 29 29 29 29 29 29 28 28 28 27 27 28 28 28 28 29 29 29 30 30 30 31 31 32 32 33 33 33 34 35 36 37 38 39 40 40 41
32 31 31 31 31 31 31 31 31 31 31 31 30 30 30 30 30 30 31 31 31 31 32 32 32 32 33 33 33 33 34 34 35 36 36 37 38 40 41 42 43 44 44
34 34 33 33 33 33 33 33 33 32 32 32 32 32 32 32 32 33 33 33 34 34 34 34 34 34 35 35 35 35 36 37 38 39 39 40 41 42 43 44 45 45 46
37 36 36 35 35 35 35 35 34 34 34 34 34 34 34 34 35 35 35 36 36 36 36 36 36 36 36 36 37 38 38 39 40 41 42 43 43 44 45 46 46 47 47
38 38 38 37 37 37 37 36 36 36 35 36 36 36 36 36 36 37 37 37 37 37 37 37 37 37 38 38 39 40 40 41 42 43 43 44 45 45 46 47 47 48 48
39 40 39 39 38 38 38 37 37 37 37 37 37 37 37 37 37 38 38 38 38 38 39 39 39 39 40 40 41 41 42 42 42 43 44 44 45 45 46 46 46 46 47

GEFSGL_500_meanwind_126.txt.gz
Wind_Speed
16 16 17 18 19 20 20 21 22 22 22 22 21 19 18 17 15 13 10 8 6 5 6 7 9 11 13 15 16 19 21 22 23 26 28 31 32 33 33 34 33 33 33
15 16 17 18 18 19 20 20 21 21 21 22 21 19 18 17 16 14 11 9 7 5 4 5 8 10 12 13 15 16 18 20 21 22 26 29 30 31 33 34 33 32 33
15 16 16 17 18 18 19 19 20 21 21 20 21 20 18 17 16 14 13 10 8 5 4 4 6 8 10 12 14 15 16 18 20 21 23 26 29 29 30 32 32 32 32
15 16 16 17 17 18 18 19 19 20 20 20 20 19 19 18 16 15 13 12 9 6 4 3 4 6 8 11 13 14 15 17 18 20 21 23 26 28 29 30 31 31 31
15 15 16 16 17 18 18 18 18 19 19 19 19 19 18 17 16 14 13 12 10 8 5 4 4 4 6 9 11 13 15 16 18 19 20 21 23 26 27 28 29 30 31
15 15 16 16 17 17 17 18 18 18 18 18 18 18 18 17 15 14 13 12 11 9 7 5 4 4 5 7 9 11 13 15 17 18 19 21 23 24 25 27 27 28 29
15 15 15 16 16 17 17 17 17 17 17 17 17 17 17 17 15 14 13 12 12 10 8 7 6 5 5 6 7 9 11 13 15 16 18 20 22 24 26 26 27 27 28
15 15 15 16 16 16 17 17 17 17 17 17 16 16 16 16 15 14 13 12 11 11 9 9 7 6 6 6 7 8 10 12 13 15 17 18 20 21 23 25 27 27 28
15 15 15 15 16 16 16 17 17 17 17 17 16 15 15 14 15 14 14 13 12 11 10 10 8 7 6 6 6 7 8 10 12 13 15 16 18 20 21 23 24 25 26
16 16 16 16 16 16 16 16 17 17 17 16 15 15 14 14 14 14 14 13 12 11 11 10 9 8 7 7 6 7 7 8 10 12 14 16 17 19 21 22 23 24 25
17 17 16 16 16 16 16 17 17 17 17 16 15 15 14 14 14 14 13 13 12 12 11 11 10 9 8 8 8 8 9 9 10 11 12 14 16 18 20 22 23 25 26
18 17 17 17 17 17 17 17 17 17 17 16 15 15 14 14 14 14 14 13 13 12 12 11 11 10 10 10 9 9 9 10 11 12 13 14 15 17 19 21 23 25 26
19 18 18 18 18 18 17 17 17 17 16 16 16 15 15 14 14 14 14 14 14 13 12 12 12 11 11 10 10 10 11 11 12 13 14 15 16 17 18 20 22 23 25
20 20 19 19 19 19 18 18 18 17 17 17 16 16 15 15 15 15 15 15 14 14 14 13 13 13 12 12 11 12 12 13 13 14 15 16 17 19 20 21 22 24 25
22 21 21 20 20 20 20 19 19 19 18 18 17 17 17 16 16 16 16 16 15 15 15 14 14 14 14 14 14 14 14 14 14 15 16 17 18 20 21 23 24 25 25
24 23 22 22 21 21 21 21 20 20 20 19 19 18 18 18 18 18 17 17 17 16 16 16 16 16 16 16 16 16 17 17 17 18 18 19 20 21 22 23 24 25 27
25 25 25 24 23 23 22 22 22 21 21 21 21 20 20 20 20 19 19 19 19 18 18 18 18 18 19 19 19 19 19 19 19 20 20 21 22 23 24 25 26 26 27
27 27 27 26 25 24 24 23 23 23 22 22 22 22 22 22 22 21 21 21 20 20 20 20 21 21 21 21 21 22 22 22 22 22 22 23 24 25 26 26 27 28 29
29 29 28 28 27 27 26 25 25 24 24 24 24 24 24 24 23 23 23 22 22 22 22 22 23 23 23 23 24 24 24 24 25 25 25 25 26 27 27 28 28 29 30
31 31 30 30 29 29 28 27 27 27 26 26 25 25 25 25 25 25 24 24 24 24 24 25 25 25 25 25 26 26 26 27 27 27 27 28 28 29 29 30 31 32 33
33 33 33 32 31 31 30 30 29 29 29 28 28 27 27 27 27 27 26 26 26 26 26 27 27 28 28 28 28 28 28 29 29 29 30 30 31 32 33 33 34 35 36
36 35 35 34 34 33 33 32 32 31 31 31 30 30 29 29 28 28 28 28 28 28 29 29 29 30 30 30 30 31 31 31 31 32 32 33 34 34 35 36 37 38 39
38 38 37 36 36 36 35 35 34 34 33 33 32 32 31 31 31 30 30 30 30 31 31 31 32 32 32 32 32 33 33 33 34 34 35 35 36 37 37 38 39 40 41
40 40 40 39 38 38 38 37 36 36 35 34 34 33 33 33 33 33 33 33 33 34 33 33 33 33 34 34 34 34 35 35 36 36 36 37 38 38 39 40 40 41 41
40 41 42 41 40 39 39 38 38 37 37 36 36 35 35 35 35 35 35 35 35 35 35 35 35 36 36 36 36 36 36 37 37 38 38 38 39 39 39 39 40 40 41
41 41 42 42 42 41 41 40 39 39 38 37 37 36 36 37 37 37 37 37 37 37 37 37 37 37 37 37 37 38 38 38 38 39 39 39 39 39 39 40 40 41 42

GEFSGL_500_meanwind_132.txt.gz
Wind_Speed
11 12 13 13 14 15 16 16 17 18 18 18 18 18 18 17 16 14 12 10 8 6 5 5 7 10 12 14 16 17 19 21 23 26 28 29 31 30 31 32 32 31 32
11 12 13 13 14 14 15 16 16 17 18 18 18 18 17 17 15 14 13 11 8 6 4 4 5 8 11 12 14 15 18 20 22 23 24 25 28 29 31 31 31 31 31
11 12 13 13 13 14 14 15 16 16 17 17 17 17 17 17 15 14 12 12 9 6 4 3 3 5 9 10 12 14 16 18 20 21 22 24 26 26 29 30 31 31 31
12 12 13 13 13 13 14 14 15 16 16 17 17 17 16 16 15 14 13 11 9 7 5 3 2 4 7 8 10 12 14 17 19 20 21 22 24 25 27 29 30 30 30
12 12 13 13 13 13 13 14 15 15 16 16 16 16 16 15 15 14 13 12 10 8 6 4 1 2 4 7 8 11 13 15 16 17 19 21 23 24 26 28 29 29 30
12 13 13 13 13 13 13 14 14 14 15 15 15 15 14 14 14 14 13 12 10 8 7 5 3 1 3 4 7 9 11 14 15 15 16 19 21 23 24 26 27 29 29
13 13 14 14 13 13 13 13 14 14 14 14 14 14 13 13 13 13 12 11 10 8 7 6 4 3 2 3 5 8 11 13 15 16 16 17 19 21 23 24 26 28 29
15 14 14 14 14 14 13 13 13 13 13 13 13 13 12 12 12 12 11 10 10 9 7 7 5 4 3 3 4 6 8 10 12 14 16 17 18 20 21 23 24 26 27
16 15 15 15 15 14 14 13 13 13 13 13 13 12 12 11 11 11 10 10 9 9 8 7 6 5 4 3 4 6 7 9 10 12 14 15 17 19 20 21 23 25 26
17 16 16 16 15 15 14 14 13 13 13 13 13 12 12 12 11 11 10 10 9 9 8 7 7 6 6 5 5 6 6 7 9 10 12 13 15 17 19 20 22 24 25
18 18 17 17 16 16 15 14 14 13 13 13 13 13 12 12 12 11 11 10 10 9 9 8 8 7 7 6 6 6 6 7 8 9 11 12 14 15 17 19 20 22 24
20 19 19 18 17 17 16 16 15 14 14 13 13 13 13 13 12 12 11 11 10 10 10 9 9 8 8 8 7 7 7 8 8 9 11 12 14 15 16 18 20 22 24
21 21 20 20 19 18 18 17 16 16 15 15 14 14 13 13 13 13 12 12 11 11 11 10 10 10 9 9 9 9 9 9 9 10 11 12 14 15 17 18 19 21 23
23 23 22 22 21 20 20 19 18 17 17 16 16 15 14 14 14 14 14 13 13 12 12 12 11 11 11 11 11 10 10 11 11 12 12 13 15 15 17 18 20 21 23
25 25 24 24 23 22 22 21 20 19 19 18 17 17 16 16 16 15 15 15 14 14 14 13 13 12 12 12 12 13 13 13 13 14 15 15 16 17 18 20 21 23 24
28 27 27 26 25 24 23 23 22 21 21 20 19 19 18 17 17 17 17 16 16 16 15 15 15 14 14 14 14 15 15 15 15 15 16 16 17 18 19 21 22 23 25
30 30 29 28 28 27 26 25 24 23 23 22 21 20 20 19 19 19 19 18 18 17 17 17 17 17 17 17 17 17 17 17 18 18 19 19 20 20 21 21 22 24 25
32 32 31 31 30 29 28 27 26 25 24 24 23 22 22 21 21 21 20 20 19 19 19 18 18 18 18 19 19 19 20 20 20 21 21 22 22 23 23 24 24 25 26
35 34 34 33 32 32 31 30 29 28 27 26 25 25 24 24 23 23 22 22 21 21 21 20 20 20 20 21 21 21 22 22 23 23 23 24 24 25 25 26 27 27 28
37 36 36 35 34 34 33 32 31 30 29 28 28 27 26 26 26 25 25 24 23 23 23 23 23 23 23 23 23 23 23 24 24 25 26 26 27 27 28 28 29 30 30
38 38 38 37 36 36 35 34 33 32 31 30 30 29 29 28 28 27 27 26 25 25 25 25 25 25 25 25 25 25 25 26 27 27 28 28 29 30 30 30 31 32 32
40 39 39 38 38 38 37 36 35 34 33 32 31 31 30 30 30 29 29 28 28 27 27 27 27 27 27 27 27 27 28 28 29 29 30 30 31 31 32 33 33 33 34
40 40 40 39 39 39 39 38 37 35 34 34 33 33 32 32 31 31 30 30 29 29 29 29 29 28 29 29 29 30 30 30 30 31 31 32 33 33 34 34 35 36 36
40 40 40 39 39 39 39 39 38 38 37 36 35 35 34 34 33 32 32 32 31 31 31 31 30 30 31 31 31 32 32 32 32 33 33 34 34 35 35 36 36 37 37
40 40 40 39 40 40 39 39 39 39 39 38 37 37 36 35 35 34 34 33 33 33 32 32 32 32 32 32 33 33 34 34 34 34 35 35 36 36 37 37 37 37 38
40 40 40 40 39 39 39 39 39 39 39 39 39 38 38 37 37 36 36 36 35 35 34 34 34 35 35 35 35 35 35 35 35 36 36 36 37 37 38 38 38 39 39

GEFSGL_500_meanwind_138.txt.gz
Wind_Speed
10 11 12 13 13 14 14 15 15 16 16 16 16 16 15 15 15 14 14 13 11 10 8 7 7 7 8 10 12 14 16 17 19 22 25 27 29 30 32 33 32 32 32
11 11 11 12 13 14 14 14 15 15 15 15 15 15 15 15 14 14 14 13 12 9 7 6 6 6 7 9 11 13 15 15 17 19 22 25 27 28 30 31 32 31 31
12 12 12 13 13 14 14 14 15 15 15 15 15 15 14 14 14 14 14 13 11 9 7 6 5 5 6 8 10 12 14 14 15 18 20 23 25 26 28 29 30 30 31
13 13 13 13 14 14 14 14 14 14 14 14 14 14 14 13 13 13 14 13 11 10 8 6 5 5 5 6 8 10 12 14 15 16 17 20 23 24 27 28 29 30 31
13 14 14 14 14 14 14 14 14 14 14 14 13 13 13 13 13 13 13 12 11 10 8 7 5 4 4 5 7 8 11 13 14 15 15 16 20 22 23 25 28 29 29
14 14 14 15 14 14 14 14 14 14 14 13 13 13 12 12 12 12 12 12 11 10 8 7 6 5 4 5 6 8 10 11 13 14 14 15 17 21 22 22 24 26 27
15 15 15 15 15 15 14 14 14 14 13 13 13 12 12 12 12 12 11 11 11 10 9 7 6 6 4 4 5 6 8 10 12 13 14 15 16 19 20 21 24 24 25
17 16 16 16 16 16 15 14 14 14 14 13 13 13 13 13 12 12 11 11 11 10 9 8 6 5 4 4 5 6 7 9 10 12 13 15 17 17 19 21 24 24 25
18 18 17 17 17 17 16 15 15 15 14 14 14 14 13 13 12 12 11 11 11 10 9 8 7 6 5 5 5 6 7 8 10 11 12 13 16 16 17 19 21 23 24
20 19 19 18 18 18 17 17 16 16 15 15 14 14 14 13 13 12 12 11 11 10 10 9 8 7 6 6 6 6 7 7 8 10 11 12 14 16 17 18 19 20 22
21 21 21 20 20 19 19 18 18 17 17 16 16 15 14 14 14 13 12 12 11 11 10 9 8 8 7 7 7 7 7 7 8 9 10 12 13 14 15 17 18 19 20
24 23 23 23 22 21 21 20 20 19 18 18 17 16 16 15 15 14 13 12 12 11 11 10 10 9 8 8 8 8 8 8 8 9 10 11 12 13 14 16 17 18 20
27 26 26 26 25 24 23 23 22 21 20 19 19 18 17 17 16 15 15 14 13 13 12 12 11 11 10 10 9 9 9 9 9 10 10 11 12 14 15 16 17 18 19
30 29 28 28 27 27 26 25 24 24 22 21 21 20 19 18 18 17 16 16 15 15 14 14 13 12 12 11 11 11 11 11 11 12 12 13 14 14 15 16 18 19 20
31 30 30 30 30 29 29 28 27 26 25 24 23 22 21 20 20 19 18 18 17 16 16 16 15 14 14 13 13 13 13 13 13 14 14 15 15 16 16 17 18 19 20
34 33 33 32 32 31 31 30 29 28 28 27 25 24 23 22 22 22 21 20 19 19 18 17 17 17 16 15 15 15 15 15 15 16 16 17 17 17 18 19 19 20 21
36 35 35 35 34 34 33 32 31 30 30 29 28 27 26 25 24 24 23 23 22 21 20 20 19 19 19 18 18 17 17 17 17 17 18 18 19 19 20 20 21 22 23
38 37 37 36 36 36 35 35 34 33 32 31 30 30 29 28 27 26 25 25 24 23 22 22 21 21 21 20 20 19 19 19 19 20 20 20 20 21 22 22 23 23 24
39 38 38 37 37 37 37 37 36 35 34 34 33 32 31 30 30 29 28 27 26 25 24 24 23 23 23 22 22 22 22 22 22 21 22 22 22 22 23 23 24 25 26
39 39 39 39 38 38 38 38 38 37 37 36 35 34 34 33 32 31 30 29 28 27 26 26 25 25 24 24 24 24 24 24 24 24 24 24 24 25 25 26 26 27 27
39 39 40 40 40 39 39 39 39 38 38 38 37 36 36 35 34 34 33 32 31 30 29 28 27 27 26 26 26 26 26 26 27 27 26 26 27 27 28 28 28 29 29
40 39 40 40 41 40 40 40 39 39 39 39 39 39 38 37 37 36 35 34 33 32 31 30 29 29 28 28 28 28 27 27 27 28 28 29 29 29 29 30 30 31 31
40 39 38 39 40 40 40 40 40 40 40 40 40 40 40 39 39 38 37 36 35 34 33 32 31 31 30 30 29 29 29 29 30 30 30 30 30 30 31 31 32 32 33
40 40 39 39 39 40 40 41 40 40 40 40 40 40 40 40 39 39 38 37 36 36 35 34 33 33 32 32 31 31 31 31 31 31 31 31 31 32 32 33 33 34 34
41 40 40 39 40 40 40 41 41 41 41 40 40 40 40 40 40 39 39 38 38 37 36 36 35 35 34 34 34 34 34 33 33 33 33 33 33 33 33 34 34 35 35
41 41 40 40 41 41 41 42 42 42 42 41 41 41 41 41 40 40 39 40 39 38 38 38 37 37 36 36 36 35 35 35 35 35 34 34 34 34 35 35 35 36 36

GEFSGL_500_meanwind_144.txt.gz
Wind_Speed
12 13 13 13 13 13 13 14 14 14 14 14 14 14 14 14 14 13 13 12 12 11 9 7 7 8 9 10 12 14 16 19 21 22 24 25 27 28 28 29 29 30 31
12 13 13 14 14 14 13 13 13 14 14 14 14 13 13 13 13 13 13 13 12 11 9 8 7 7 7 8 10 12 14 16 19 21 23 25 26 27 28 29 29 29 30
12 13 13 14 14 14 14 14 14 14 14 14 14 13 13 13 13 13 12 12 12 11 10 9 7 7 7 7 8 10 12 14 16 19 21 23 25 27 28 29 30 29 30
13 13 13 13 14 14 14 14 14 14 14 13 13 13 13 13 13 13 12 12 12 11 10 9 8 7 7 7 8 9 11 12 15 17 19 22 23 25 27 28 29 30 30
14 14 13 13 14 14 14 14 14 14 14 14 13 13 13 13 13 13 13 12 11 11 10 9 8 7 7 7 7 8 10 11 14 16 18 20 21 23 26 28 29 30 30
15 15 15 15 15 15 15 14 14 14 14 13 13 13 13 13 13 13 13 12 11 11 11 10 9 8 7 7 7 8 9 11 13 15 16 18 19 20 23 26 28 29 29
17 17 17 17 16 15 15 15 15 15 14 14 14 14 13 13 13 13 13 12 12 11 11 11 10 9 8 7 8 8 8 10 12 14 16 17 18 19 20 23 25 27 28
18 19 19 18 18 17 17 17 16 16 15 15 15 15 14 14 14 14 13 13 12 12 11 11 10 10 9 8 8 8 8 10 11 13 14 16 17 18 19 21 24 25 26
21 21 21 21 20 20 19 18 18 17 17 17 16 16 15 15 14 14 14 13 13 12 12 11 11 10 10 9 9 8 8 8 10 11 13 14 15 16 17 20 22 24 26
23 23 23 23 23 22 21 21 20 19 19 18 18 18 17 16 16 15 15 14 14 13 12 12 11 11 10 9 9 8 8 9 9 11 12 14 15 16 17 18 20 22 23
25 25 25 25 25 24 24 23 22 22 21 21 20 19 19 18 18 17 16 16 15 14 14 13 12 11 11 11 10 9 9 9 10 10 12 13 14 15 15 17 18 20 22
28 28 28 27 27 26 25 25 25 24 23 23 22 22 21 20 20 19 18 17 17 16 15 15 14 13 12 12 11 11 10 10 10 11 11 12 14 15 15 15 17 18 20
29 29 29 29 29 28 27 27 27 26 26 25 25 24 23 22 22 21 20 19 18 18 17 16 15 15 14 13 13 12 12 12 12 12 12 12 13 14 15 16 16 17 19
30 30 30 31 31 30 30 29 29 29 28 28 27 27 26 25 24 23 22 21 20 20 19 19 18 17 16 16 15 14 14 14 14 13 13 14 14 14 15 16 17 18 19
33 33 33 33 33 34 33 32 32 32 31 30 30 29 28 27 27 26 25 24 23 22 22 21 20 19 18 18 17 17 16 16 16 16 15 16 16 16 17 17 18 19 20
35 35 35 36 36 36 36 35 35 35 34 33 32 32 31 30 29 29 28 27 26 25 24 23 22 22 21 20 20 19 19 18 18 18 18 18 18 18 19 19 20 20 21
38 38 38 38 38 38 38 37 36 36 36 35 34 34 33 33 32 31 31 30 29 28 27 25 25 24 23 22 22 21 21 20 20 20 20 20 20 20 21 21 21 22 22
40 40 40 40 40 39 39 38 37 37 36 36 36 36 35 35 34 34 33 32 31 30 29 28 27 26 25 24 24 23 23 22 22 22 22 21 21 21 22 22 23 23 24
41 41 40 39 38 39 39 38 38 38 37 37 37 37 37 36 35 35 35 34 33 32 32 30 29 29 28 27 26 25 25 24 24 24 23 23 23 23 23 23 24 25 25
41 40 39 38 38 38 39 39 38 37 38 38 37 38 38 37 37 36 36 36 35 35 34 33 32 31 30 29 28 28 27 27 26 26 25 25 25 24 24 25 25 25 26
40 40 40 39 39 38 38 38 38 38 37 37 37 37 37 37 38 38 37 37 37 36 36 35 34 33 32 32 31 30 29 28 28 28 27 27 26 26 26 26 26 27 27
41 40 40 40 39 39 39 38 37 37 37 37 37 37 38 38 37 38 38 38 38 38 38 37 37 36 35 34 33 32 31 30 29 29 29 29 28 28 28 29 29 29 29
42 41 41 40 40 39 38 38 37 37 37 37 37 38 38 38 37 38 38 38 38 39 39 39 38 38 37 36 35 35 34 33 31 31 30 30 30 30 30 30 30 30 31
43 42 41 40 40 40 39 39 39 38 38 38 38 38 38 38 38 38 39 39 39 39 39 40 40 39 38 37 36 35 34 34 33 32 32 32 31 31 31 31 32 32 32
44 43 42 42 41 41 40 39 39 40 39 39 39 39 39 39 39 38 38 38 39 38 38 38 39 39 39 37 37 36 36 35 34 34 33 33 32 32 32 33 33 33 33
43 43 43 43 42 41 41 40 40 40 40 40 40 40 40 39 39 38 38 37 37 37 37 36 37 38 38 37 37 36 36 36 35 35 34 34 34 34 34 33 33 33 33

GEFSGL_500_meanwind_150.txt.gz
Wind_Speed
12 13 13 14 14 14 14 15 15 15 15 15 15 16 16 15 13 13 13 13 13 12 11 10 10 8 8 9 9 10 12 13 14 16 17 18 18 20 21 22 23 25 25
13 13 14 14 14 15 15 15 15 14 15 15 15 15 15 15 14 14 13 13 13 13 12 10 9 9 8 8 8 9 11 12 13 15 16 17 18 19 21 21 22 24 25
13 13 14 14 14 15 15 15 15 15 15 15 15 15 15 15 15 14 13 13 13 12 12 11 10 9 8 8 8 9 10 11 12 14 15 16 17 19 20 21 22 23 25
13 14 14 14 15 15 16 16 15 15 15 15 14 15 15 15 15 14 14 14 13 12 11 11 10 9 8 8 9 9 10 11 12 13 14 15 17 18 20 21 22 23 24
14 14 15 15 16 16 16 16 16 16 15 15 15 15 15 15 15 15 15 14 13 12 12 11 11 10 10 10 10 10 10 10 11 12 13 14 16 17 19 21 22 23 24
15 15 16 16 16 17 17 17 17 16 16 15 15 15 15 15 15 15 15 14 13 13 13 12 12 11 11 11 10 10 11 11 11 12 13 14 16 16 18 19 21 22 23
17 17 17 17 17 18 18 18 18 18 17 16 16 16 16 16 16 16 16 15 14 14 14 13 12 12 12 11 11 11 11 11 11 12 13 15 15 16 17 18 20 22 23
19 19 19 19 19 19 20 19 19 19 19 18 18 17 17 17 17 17 16 16 16 15 14 14 13 13 13 12 12 12 12 12 12 13 13 13 14 15 16 17 19 21 23
21 21 21 21 21 22 22 22 21 21 21 20 19 19 18 19 19 18 18 17 17 16 15 15 14 13 14 13 12 12 12 12 13 14 13 14 15 15 16 17 19 20 21
23 23 23 23 24 24 24 24 24 23 23 22 22 22 21 21 20 19 19 19 18 18 17 16 16 15 15 14 13 13 13 13 14 14 14 15 16 16 17 17 18 19 21
25 25 26 26 26 26 26 26 26 26 26 25 25 24 23 23 22 21 21 20 20 19 18 18 17 17 16 16 15 15 14 15 15 15 15 15 16 16 17 18 19 20 21
28 28 28 28 29 29 29 29 29 29 28 28 26 26 25 25 24 23 23 22 22 21 21 20 19 19 18 17 16 16 16 16 16 15 15 15 16 16 16 17 19 20 21
30 30 31 31 31 31 31 31 31 30 30 29 28 28 27 27 26 26 26 25 25 24 23 22 21 21 21 20 19 18 17 17 17 16 16 16 16 16 17 17 18 19 20
33 33 33 33 34 34 33 33 33 32 32 31 31 30 30 29 29 29 28 28 27 27 26 25 24 23 23 22 22 21 20 19 19 18 18 18 18 17 18 19 19 18 19
35 35 36 36 36 36 35 35 34 33 33 32 32 33 32 32 31 31 31 30 30 30 29 28 27 26 25 25 24 23 22 21 21 20 20 19 19 19 19 20 20 20 20
37 37 37 37 37 37 36 35 35 34 34 34 34 34 34 34 33 32 31 30 31 31 31 30 29 29 28 27 26 26 24 24 23 23 22 22 21 20 20 20 20 20 20
39 38 38 39 39 38 37 37 36 36 35 36 36 36 35 35 35 34 32 32 32 33 32 32 31 31 31 30 29 28 27 26 25 25 25 24 24 23 23 23 22 22 22
41 40 40 40 40 39 39 38 38 37 37 37 37 37 36 36 36 35 34 34 34 34 34 34 34 33 32 31 31 30 30 29 28 27 27 26 26 25 25 25 24 24 24
42 42 42 42 41 41 40 40 39 39 38 38 38 37 37 37 37 36 36 36 36 36 36 36 35 35 34 33 32 32 32 31 30 29 29 28 28 27 27 27 26 26 26
44 44 44 43 43 42 42 41 40 40 39 38 38 38 38 38 37 36 36 37 37 37 36 36 35 35 35 34 34 33 33 33 32 32 30 30 29 29 28 28 28 28 27
46 46 46 45 44 43 42 41 41 40 40 40 39 39 39 39 38 37 37 37 37 37 36 36 35 35 35 35 34 34 35 34 34 34 32 31 31 30 30 30 30 29 29
48 47 46 45 45 44 43 42 42 42 41 41 40 40 40 39 39 38 37 37 37 37 36 36 35 35 35 35 35 34 35 35 34 34 34 32 31 31 30 30 31 31 31
48 47 46 45 45 45 44 43 43 43 42 41 40 40 40 40 39 38 37 37 38 38 37 36 35 34 34 35 34 34 33 34 34 34 34 33 32 31 31 31 31 31 31
48 48 47 46 45 45 45 44 43 43 42 41 41 40 40 40 39 38 37 37 38 38 37 35 34 34 34 35 35 34 33 32 33 33 34 33 33 32 32 32 31 31 31
48 48 47 47 46 45 45 44 44 43 42 41 41 40 40 39 38 37 37 37 37 37 37 36 35 34 35 35 35 35 34 33 32 33 33 34 34 33 32 32 32 31 32
48 48 47 47 46 46 46 44 43 42 42 41 41 40 39 38 37 37 37 37 36 36 36 36 35 35 35 35 35 35 35 34 32 32 32 33 34 33 32 32 32 32 32

GEFSGL_500_meanwind_156.txt.gz
Wind_Speed
9 8 9 9 10 10 11 11 12 13 14 14 14 14 14 13 12 12 12 12 11 10 9 8 8 7 6 6 6 7 8 9 11 12 13 14 15 17 19 19 21 22 22
9 9 9 10 11 11 11 12 12 13 14 14 14 14 14 13 12 12 12 12 11 10 9 8 8 8 7 7 7 7 8 9 10 11 12 14 15 17 18 19 20 22 23
9 9 10 10 11 11 12 12 13 14 14 14 14 14 14 13 13 12 11 11 11 11 10 9 8 8 8 8 8 8 8 9 10 11 12 13 15 16 18 19 19 21 23
9 10 10 11 12 12 13 14 14 15 15 15 15 14 14 14 13 13 12 11 11 11 10 9 9 8 8 8 8 8 8 9 10 12 13 14 15 16 17 18 19 20 22
10 10 11 12 12 13 14 15 15 15 15 15 15 15 15 14 14 14 13 11 11 11 10 10 10 9 10 10 10 10 10 10 11 12 13 14 15 16 16 17 18 20 21
11 12 12 13 14 15 16 16 16 16 16 16 16 16 16 15 15 15 14 12 11 11 11 11 11 11 11 12 11 11 11 11 12 12 14 15 16 16 17 18 18 20 21
13 14 15 15 16 17 17 18 18 18 18 18 18 18 17 17 17 16 16 14 13 12 12 12 12 13 13 13 13 12 12 13 13 14 14 15 16 16 17 18 19 20 22
16 16 17 18 18 18 19 19 19 19 19 19 19 19 19 19 19 18 17 16 15 14 14 14 14 14 15 15 14 14 14 14 15 15 16 16 16 17 18 18 19 21 22
18 18 19 19 20 20 21 21 21 21 21 21 21 21 21 20 20 20 19 18 17 17 16 16 16 17 16 16 16 16 16 16 16 17 17 18 18 18 19 20 21 21 23
20 21 21 22 22 23 23 23 23 23 23 23 23 23 22 22 22 21 21 20 19 19 19 19 19 19 18 18 18 18 18 18 18 18 19 19 20 21 21 21 22 22 23
23 23 23 24 24 25 25 25 25 26 26 26 26 25 24 24 24 23 23 22 21 21 20 21 21 21 21 21 21 20 20 20 20 20 21 21 21 22 23 23 24 24 24
24 25 26 26 27 27 27 27 28 28 28 28 28 27 27 26 26 26 25 24 24 23 23 23 23 24 24 23 23 23 23 23 23 23 22 23 23 23 24 24 25 25 25
26 27 28 29 29 30 30 30 31 30 30 30 30 30 29 29 28 28 27 26 26 26 26 26 26 26 26 26 26 26 25 25 25 25 24 24 25 25 25 25 25 26 26
29 30 31 31 32 32 32 33 33 33 33 33 33 32 31 31 30 30 29 29 29 29 29 29 30 29 29 29 28 28 28 28 27 27 26 26 26 26 27 26 26 27 27
31 32 33 33 33 33 34 34 35 35 36 35 35 35 34 33 32 32 32 32 32 32 32 32 32 32 31 31 30 30 30 30 30 30 29 29 29 28 29 29 29 29 29
33 34 34 34 34 35 35 36 37 38 38 37 37 36 36 35 35 35 35 35 35 34 34 34 33 33 33 33 33 33 33 33 33 33 32 31 31 31 31 31 31 31 31
35 36 36 37 37 38 38 39 39 39 39 39 39 38 38 38 37 37 37 36 36 36 35 35 35 34 35 34 34 34 34 34 34 35 34 34 34 34 33 33 33 32 32
38 38 39 40 40 41 42 42 42 41 41 40 40 40 40 39 39 38 37 38 38 37 37 36 36 36 36 36 35 35 35 35 35 36 35 35 35 35 35 35 34 33 33
41 42 42 42 43 43 44 44 43 43 43 42 41 41 41 40 39 39 38 39 39 38 38 38 38 37 37 37 36 36 36 36 36 36 36 36 35 35 35 36 35 34 34
44 44 45 45 45 45 45 45 45 45 44 44 43 43 42 42 41 40 40 40 40 40 39 39 39 39 38 37 36 36 36 36 36 36 35 36 35 35 35 35 35 35 34
46 46 47 47 47 47 47 47 47 46 46 45 44 44 44 43 42 42 41 41 41 40 40 39 39 39 38 37 36 36 36 36 35 35 36 36 36 34 34 34 34 34 34
48 48 48 48 48 48 48 48 48 47 47 46 46 45 45 45 44 43 43 42 41 41 40 40 39 39 39 38 37 37 36 35 35 35 35 35 36 35 33 33 34 34 34
49 49 49 49 49 49 49 49 48 48 47 47 46 46 46 46 45 44 43 42 40 40 40 40 39 39 38 38 37 37 36 36 36 35 34 33 34 34 32 32 33 33 34
50 50 51 50 50 50 50 49 49 49 48 47 47 46 46 46 45 45 43 42 41 40 39 39 38 38 37 37 37 36 36 36 35 34 34 33 33 33 32 32 32 33 33
51 51 51 50 50 50 50 49 49 48 48 47 46 46 46 45 45 44 43 42 41 40 39 39 38 37 37 36 36 36 36 35 35 34 34 34 34 34 33 32 33 33 33
51 51 51 51 50 50 50 49 48 48 47 46 46 45 45 44 43 43 42 41 40 40 39 38 38 38 37 36 36 36 35 35 35 34 34 34 34 35 34 33 33 33 33

GEFSGL_500_meanwind_162.txt.gz
Wind_Speed
6 7 8 9 9 10 10 11 11 12 12 13 15 15 15 15 15 15 14 14 13 12 12 12 11 11 10 9 8 8 8 8 9 10 11 12 13 14 16 17 18 20 20
7 8 9 9 10 10 11 11 12 13 13 14 15 16 16 16 16 16 15 15 14 14 13 12 11 11 10 10 10 9 9 9 10 10 11 12 13 14 16 17 18 19 20
8 8 9 9 10 11 11 12 13 13 14 14 15 16 16 17 17 17 16 16 16 15 14 13 12 12 11 11 10 10 10 10 10 11 11 12 14 15 16 17 19 19 20
9 9 9 10 10 11 12 12 13 14 15 15 16 16 17 17 17 17 17 17 17 16 15 13 13 12 11 11 11 11 11 11 11 12 12 13 14 15 16 17 19 20 20
10 10 10 10 11 12 12 13 14 15 15 16 17 17 18 18 18 18 17 17 17 16 15 14 13 12 12 12 11 11 11 12 12 13 13 14 15 16 17 18 19 20 21
10 11 11 12 12 13 14 14 15 16 16 17 18 18 19 19 19 19 18 17 17 16 15 15 14 14 13 13 13 13 13 13 14 14 15 16 16 17 18 19 20 20 22
11 12 13 13 14 14 15 16 16 17 17 18 19 20 20 20 20 20 19 19 18 17 17 16 16 15 15 15 15 14 14 15 16 16 16 17 18 18 19 20 21 21 23
13 14 14 15 16 16 17 17 18 18 19 20 20 21 21 21 20 21 21 20 19 19 18 18 17 17 17 17 17 17 17 17 18 18 19 19 20 20 21 22 23 23 24
16 16 16 17 18 18 18 19 19 20 20 21 22 22 22 22 22 22 22 21 21 21 20 20 19 19 19 19 20 20 20 20 20 21 22 22 23 23 23 24 24 25 25
18 19 19 19 19 20 21 21 22 22 23 23 23 23 23 23 24 24 23 23 23 23 23 22 22 21 21 22 23 22 22 22 23 23 24 25 26 26 26 26 27 27 27
20 21 21 22 22 22 23 23 24 24 24 25 25 25 25 26 26 26 26 25 25 25 25 25 24 24 24 24 25 24 24 25 25 25 26 26 27 27 28 28 29 29 29
21 22 23 24 24 25 25 26 26 27 27 27 27 28 28 28 28 28 28 28 28 28 28 27 27 27 27 27 27 26 27 28 28 28 28 28 28 29 29 30 30 30 31
23 24 25 25 26 27 27 28 29 29 30 30 30 30 30 30 30 30 30 30 30 30 30 31 30 30 30 29 29 28 29 29 30 30 30 30 31 31 31 32 33 33 33
25 26 27 27 28 28 29 30 31 32 32 33 33 32 32 33 33 33 33 33 33 32 32 32 32 32 32 31 31 31 31 31 31 32 31 31 32 32 33 33 34 34 34
28 28 29 29 30 31 32 32 33 34 34 35 35 36 35 35 36 36 36 36 36 35 34 34 34 34 33 33 33 33 33 33 33 33 33 32 32 33 33 34 35 35 35
30 31 31 32 32 33 34 35 35 36 37 38 38 39 39 39 39 39 39 38 37 37 36 35 35 35 35 35 35 34 35 35 34 34 34 33 33 33 34 34 35 36 36
33 33 34 35 35 36 37 38 38 39 40 41 41 41 42 41 41 40 40 40 39 38 37 36 36 36 36 36 36 36 36 35 35 35 34 34 34 34 35 35 36 36 37
36 36 37 38 39 40 40 40 41 41 42 43 43 43 43 43 43 42 41 41 40 40 39 38 38 38 38 38 38 37 36 36 36 35 35 35 35 35 35 35 36 36 37
38 39 40 41 41 42 42 43 43 44 44 44 44 44 44 44 44 43 43 42 41 41 40 40 39 39 39 39 39 38 38 37 37 36 36 36 35 35 34 34 35 35 36
40 41 42 43 43 44 44 45 45 45 46 46 45 45 45 44 44 43 43 43 43 42 41 41 40 40 39 39 38 38 38 38 38 38 37 37 36 36 36 35 35 35 35
42 43 44 44 45 45 46 46 46 47 47 46 45 45 45 45 45 44 44 44 44 43 42 42 42 41 40 39 39 39 39 39 38 38 38 37 37 37 37 36 36 36 36
44 45 45 46 46 47 47 48 48 48 47 47 46 46 46 46 46 45 45 45 45 44 44 43 43 42 42 41 41 40 40 39 39 39 39 38 38 38 37 37 37 37 36
45 46 46 47 48 48 48 49 49 49 48 48 47 47 47 47 47 47 46 46 45 45 45 44 44 43 42 42 42 41 41 40 39 39 38 38 38 37 37 37 37 37 36
46 47 47 48 49 49 49 49 49 49 48 48 48 48 49 49 48 48 47 47 46 45 45 45 44 43 43 42 41 40 40 40 39 39 39 38 37 37 37 37 37 37 36
47 48 48 48 49 49 49 49 48 48 49 49 49 49 50 49 49 48 48 47 46 45 44 43 42 42 41 41 41 40 40 40 39 39 38 37 37 37 36 36 36 36 35
48 49 49 49 49 49 49 49 49 49 49 50 50 50 50 49 49 48 47 46 45 44 43 42 41 40 40 40 40 40 39 39 39 39 37 36 36 36 36 36 35 34 34

GEFSGL_500_meanwind_168.txt.gz
Wind_Speed
5 5 5 5 5 5 6 7 8 8 9 10 11 12 13 13 13 13 13 13 13 12 12 12 12 12 11 11 10 10 10 10 10 11 11 13 14 15 15 16 17 18 19
6 6 6 6 6 6 6 7 8 9 10 11 12 12 13 14 14 14 14 14 13 13 13 13 13 12 12 11 10 10 10 10 10 11 11 13 14 15 16 16 17 18 19
8 8 7 7 7 7 7 8 9 10 11 11 12 13 13 14 14 14 14 14 14 14 14 13 13 13 13 12 11 11 11 11 11 11 11 13 14 15 16 17 18 18 19
8 8 8 8 8 8 9 9 10 10 11 12 12 13 14 14 15 15 15 14 14 14 14 14 14 14 14 13 12 12 11 11 12 12 12 13 14 15 16 17 18 19 20
9 9 9 9 9 9 10 10 10 11 12 13 13 14 15 15 16 16 15 15 15 15 15 15 15 15 14 13 12 12 12 12 12 13 13 14 14 15 16 17 19 19 20
10 10 10 10 10 10 10 11 12 13 13 14 15 15 16 16 16 16 16 16 17 17 16 16 16 16 16 15 14 13 13 13 13 14 15 16 16 17 17 19 20 21 22
11 11 11 11 11 12 12 12 13 14 15 16 16 17 17 17 17 17 17 17 18 18 18 18 18 18 17 17 16 16 15 15 15 16 17 17 18 19 20 20 22 22 23
12 12 13 13 14 14 15 15 16 16 17 17 18 18 18 18 18 18 18 19 19 19 19 19 19 19 19 19 19 18 18 18 19 19 20 20 20 21 22 23 24 25 26
14 15 15 15 16 17 17 18 18 19 19 19 19 19 19 19 19 20 20 20 20 21 21 21 21 21 21 21 21 21 21 21 22 23 23 23 23 24 25 26 27 27 28
16 16 17 17 18 18 19 20 20 20 21 21 21 21 21 21 21 22 22 22 22 22 23 23 24 24 24 24 24 24 24 24 25 25 26 26 27 27 27 28 29 30 30
18 18 19 19 20 20 21 22 22 22 23 23 23 23 23 23 24 24 25 25 24 25 25 26 26 27 26 26 27 27 27 27 28 28 28 28 28 28 29 30 31 31 32
19 20 21 22 22 23 24 24 24 24 25 25 25 25 25 26 26 26 27 27 28 28 29 29 29 29 29 29 29 29 30 30 30 30 31 31 31 31 31 32 33 33 34
21 22 23 24 25 25 26 26 26 26 27 27 27 27 27 28 28 28 29 29 31 31 32 32 33 33 33 33 32 32 32 32 32 32 32 32 32 32 32 32 33 33 33
24 25 26 27 27 27 27 28 28 28 29 29 30 30 30 30 31 31 32 33 34 34 35 36 36 35 35 35 35 34 34 35 35 35 34 34 33 32 32 33 33 34 34
27 27 28 29 29 30 30 30 30 31 31 32 32 32 33 34 34 35 35 36 37 37 38 38 38 38 37 37 37 36 36 36 37 36 36 34 34 34 34 35 36 36 35
29 29 30 31 31 32 32 32 32 33 33 34 34 35 36 37 38 38 39 39 39 39 39 39 39 39 39 39 38 37 36 36 36 36 36 35 35 35 36 36 36 36 36
30 31 32 33 33 34 34 34 35 35 36 36 37 38 39 40 40 41 42 42 41 41 40 41 41 41 40 39 38 38 37 36 36 36 36 35 35 36 36 36 36 36 36
33 33 34 34 35 35 36 36 36 37 38 38 39 40 41 42 42 43 44 43 42 42 42 42 41 41 40 39 38 38 38 38 37 37 37 36 36 37 37 37 37 37 37
34 35 35 36 37 37 38 38 39 39 40 40 41 42 42 43 43 43 43 44 43 43 42 42 41 41 40 40 39 39 39 39 38 38 39 39 39 38 38 37 37 38 38
36 37 37 38 39 40 40 41 41 41 42 43 43 43 44 44 44 44 44 45 44 44 42 42 41 41 41 41 40 40 40 40 40 39 39 40 39 39 39 39 39 39 39
38 38 39 40 41 41 42 43 43 43 44 44 44 44 44 45 45 45 45 45 45 44 43 42 42 41 42 41 42 42 41 41 40 40 39 40 39 39 39 39 39 39 39
39 40 41 41 42 42 43 44 44 44 45 45 45 45 45 46 46 45 45 45 44 44 43 43 43 42 42 42 43 42 42 41 41 40 39 39 39 39 39 39 39 39 39
41 41 42 42 43 43 43 44 45 45 45 46 46 46 46 46 46 46 46 45 44 44 44 44 44 44 44 43 42 42 42 41 40 40 39 39 39 39 39 39 39 38 38
41 41 42 42 43 43 44 45 46 46 47 47 48 47 47 47 47 46 47 46 46 45 45 45 45 44 43 43 42 41 40 40 40 40 39 39 39 39 39 38 38 37 37
42 42 42 43 44 45 46 47 48 48 48 49 49 48 47 47 47 47 47 47 46 46 45 45 45 44 43 42 42 41 40 40 40 40 39 39 38 38 38 37 37 37 36
43 44 45 46 46 47 48 48 49 49 49 49 49 48 48 48 48 48 48 47 47 47 47 46 44 43 43 42 41 41 40 40 40 40 41 40 39 37 37 37 37 36 36

GEFSGL_500_meanwind_174.txt.gz
Wind_Speed
6 6 6 6 7 7 7 7 7 7 8 10 11 11 12 13 13 13 13 13 13 13 13 13 12 11 11 11 11 11 10 10 9 9 9 9 10 10 12 12 13 13 14
8 7 7 7 7 7 8 7 8 8 10 11 12 12 12 13 14 13 14 14 14 13 13 13 12 12 12 12 12 12 11 11 10 10 10 10 11 12 12 13 13 14 14
9 8 8 8 8 8 8 8 9 10 10 11 12 13 13 14 14 14 14 14 14 13 13 14 13 13 13 13 13 13 12 12 12 12 11 12 12 12 13 14 14 14 15
10 9 9 9 9 9 9 9 10 11 11 12 13 13 14 14 15 15 15 15 15 14 15 15 14 14 14 14 14 14 13 13 13 13 13 13 13 13 13 14 15 16 17
11 11 10 10 10 10 10 11 11 12 13 13 14 14 15 15 16 16 16 16 15 15 15 15 15 15 15 15 15 15 15 14 14 14 15 15 15 15 15 16 16 17 17
12 12 11 11 11 11 11 12 12 13 14 14 15 15 16 17 17 17 17 16 16 16 16 16 16 16 16 17 17 17 16 16 16 16 16 16 17 17 17 17 18 18 19
13 13 12 12 13 12 13 13 13 14 15 15 16 17 17 18 18 18 18 17 17 17 17 17 17 17 18 18 18 18 18 18 18 18 18 18 19 19 19 20 20 21 21
14 14 14 14 14 14 14 15 15 15 16 17 18 18 18 19 20 20 20 19 19 19 18 18 19 19 19 20 20 19 19 20 20 21 21 21 21 22 23 23 24 24 24
15 15 15 16 16 16 16 16 16 17 17 18 19 20 20 21 21 21 21 20 20 20 21 21 21 21 22 22 22 22 22 23 23 23 23 24 24 25 25 26 26 26 27
16 17 17 18 18 18 18 18 18 19 19 20 21 22 22 23 23 23 22 22 22 23 23 23 24 24 24 24 25 25 25 26 26 26 27 27 27 28 29 29 30 30 30
18 19 19 19 19 20 20 20 21 21 22 22 23 23 24 24 25 25 24 25 25 25 25 26 26 26 27 27 28 28 28 29 29 30 29 30 30 31 32 32 33 33 33
20 20 21 21 21 22 22 22 23 23 24 25 25 26 26 26 27 27 27 27 27 28 28 29 29 30 30 30 30 31 31 32 33 33 33 33 33 34 35 35 35 35 36
22 22 22 23 23 23 24 24 25 26 26 27 27 28 28 29 29 29 29 30 30 31 31 32 32 32 33 33 33 34 35 35 36 36 36 36 36 36 36 36 36 36 37
23 24 24 25 25 25 25 26 27 28 28 29 29 30 30 31 31 32 32 33 33 34 35 35 36 36 36 36 36 37 38 38 38 38 38 38 38 37 38 38 37 37 38
25 25 26 26 27 27 27 28 29 30 30 30 31 32 32 33 33 34 35 35 36 37 37 38 38 38 38 39 40 40 39 39 39 39 39 39 39 39 39 39 38 38 38
27 27 27 28 28 28 29 30 31 31 32 32 33 34 34 35 35 36 37 37 38 39 39 39 40 40 41 41 41 40 40 40 40 40 40 40 40 39 39 38 38 37 37
28 28 29 29 29 30 31 31 32 32 33 34 35 35 36 36 37 38 39 39 40 41 41 41 41 42 42 42 42 41 41 41 41 41 40 40 40 39 39 38 37 37 37
30 30 30 31 31 32 32 33 34 34 35 36 37 37 38 39 39 40 41 41 41 42 42 43 43 43 43 43 43 43 42 42 41 41 41 40 40 40 39 38 38 37 37
31 31 32 33 33 33 34 35 36 37 37 38 38 38 39 40 41 41 42 42 43 43 43 43 44 43 43 44 44 43 42 42 41 41 41 40 40 40 39 38 38 37 36
33 34 34 34 35 36 37 37 38 39 39 39 39 40 40 41 42 42 42 43 43 44 44 44 44 44 44 44 43 42 41 41 40 40 40 40 40 40 39 39 38 37 37
34 35 35 36 37 38 39 39 39 40 40 41 41 41 42 42 43 43 44 44 45 45 45 45 45 44 44 43 43 42 41 41 42 41 41 40 40 40 40 39 38 37 37
36 36 37 38 38 39 39 39 40 40 41 42 42 42 43 44 45 45 46 46 47 47 47 46 45 44 44 44 43 43 43 43 43 42 41 41 40 40 39 39 39 38 37
37 38 39 39 39 40 40 40 40 41 42 42 43 43 44 45 46 47 47 48 49 48 48 47 46 45 45 45 45 45 45 44 43 42 40 40 40 39 38 38 38 38 37
40 40 40 41 41 41 41 41 42 42 43 44 45 46 46 47 48 48 49 49 49 48 47 46 46 46 46 46 46 46 46 45 44 43 41 41 40 40 38 38 38 38 37
41 42 42 42 42 42 43 44 44 45 45 46 47 47 48 48 49 49 49 48 48 47 46 46 46 46 46 46 46 46 45 45 44 43 41 41 40 39 38 37 37 37 37
43 43 43 43 44 44 45 45 46 46 47 47 48 48 49 49 49 49 48 47 47 47 47 46 46 46 46 46 46 46 45 44 44 43 41 40 39 38 38 38 38 37 37

GEFSGL_500_meanwind_180.txt.gz
Wind_Speed
5 5 5 5 5 5 5 5 5 5 5 6 7 8 9 10 10 11 11 12 12 12 12 12 11 11 11 10 10 9 9 8 7 8 8 8 9 10 11 12 13 14 15
6 6 6 6 6 6 6 5 5 5 6 6 7 8 9 10 11 11 12 12 12 12 12 12 12 12 12 12 11 10 9 9 8 8 8 8 9 10 11 11 13 14 15
7 7 7 7 7 7 7 6 6 6 7 7 8 9 10 11 11 12 13 13 13 13 13 13 13 13 12 12 11 10 10 10 9 9 10 10 10 11 12 13 14 14 15
8 8 8 8 8 8 8 8 8 8 8 8 9 10 10 11 12 12 13 14 14 14 14 14 14 13 13 13 12 12 11 11 11 11 11 12 12 12 13 14 15 16 17
9 9 9 9 9 9 9 9 9 9 9 10 10 11 11 12 13 14 14 15 15 15 15 15 15 14 14 13 13 13 13 13 13 13 13 13 14 14 15 16 17 18 18
11 10 10 10 10 10 10 10 11 11 11 11 12 12 13 13 14 15 15 16 16 16 16 16 16 16 15 15 15 15 15 15 15 15 15 16 16 16 17 18 19 20 20
12 11 11 11 11 12 12 12 12 12 13 13 13 13 14 15 16 17 17 17 17 17 17 17 17 17 17 17 17 17 17 17 17 18 18 18 19 20 20 20 21 22 23
13 13 13 13 13 13 14 14 14 14 14 15 15 15 16 16 17 18 18 18 19 19 19 18 18 18 18 19 19 20 20 20 20 20 20 21 21 22 23 23 23 24 25
14 14 14 15 15 15 15 15 16 16 16 17 17 18 18 18 19 20 20 20 21 21 21 20 20 20 21 21 21 22 22 22 23 23 24 24 24 24 25 26 26 27 28
15 15 16 16 16 16 16 17 18 18 18 19 19 20 21 21 21 22 22 23 23 22 22 22 23 23 24 24 24 25 25 25 25 25 26 26 27 27 28 29 30 30 31
16 17 17 17 17 18 18 19 20 20 20 21 21 22 23 23 23 24 24 25 24 24 24 24 25 25 26 26 27 27 27 27 27 27 28 28 29 30 31 31 32 33 34
18 18 18 18 19 19 20 21 21 22 22 22 23 24 24 25 25 26 26 26 26 26 26 26 27 27 28 29 29 30 30 30 30 30 31 31 31 32 33 34 35 36 36
20 20 20 20 21 21 22 23 23 24 24 24 25 25 26 27 27 27 28 28 28 28 28 28 29 30 31 31 32 32 33 33 33 33 34 34 34 34 35 36 36 37 37
22 22 22 22 23 24 24 25 25 26 26 26 27 27 28 28 29 29 29 29 29 30 30 31 32 33 33 34 34 35 35 35 36 36 36 37 37 37 38 38 38 38 38
23 24 24 24 25 25 26 26 27 27 28 28 28 29 29 30 30 31 31 32 32 32 33 33 34 35 36 36 36 37 37 37 38 38 39 39 39 39 39 39 40 40 40
25 25 26 26 26 26 27 28 28 29 29 30 30 31 31 31 32 33 33 34 34 35 35 36 36 37 37 38 38 39 39 39 40 40 41 41 41 41 41 41 41 41 41
26 26 26 27 27 28 28 29 29 30 31 31 32 33 33 34 34 34 35 35 35 36 36 37 38 38 39 40 40 41 41 41 42 42 43 43 43 43 43 42 42 42 42
26 27 27 27 28 29 29 30 31 32 32 33 34 34 34 35 35 35 36 36 36 37 38 38 39 40 40 41 42 42 43 43 44 44 44 44 44 44 43 43 43 43 43
28 28 29 29 30 31 32 32 33 33 34 35 35 35 35 36 36 37 37 37 37 38 39 39 40 41 42 43 43 44 45 45 45 45 45 44 43 43 43 43 43 43 43
29 30 30 31 32 33 33 34 35 35 36 36 36 36 37 37 38 38 38 38 39 40 40 41 42 43 44 44 45 46 47 47 46 45 44 43 43 43 44 44 43 43 43
32 33 33 34 34 35 35 35 36 36 36 37 37 38 38 38 39 39 39 40 41 41 42 42 43 44 45 46 47 48 48 47 46 44 43 43 43 44 44 44 44 44 43
35 35 36 36 36 36 36 37 37 37 38 38 39 39 40 40 40 41 42 42 43 43 44 44 45 46 47 48 49 49 48 47 45 44 44 44 44 44 45 45 45 45 44
35 36 36 37 37 38 38 38 39 39 39 40 41 41 41 42 42 43 43 43 44 45 46 47 47 48 49 50 50 50 48 47 46 46 45 45 45 46 46 46 45 45 43
36 37 37 38 39 39 39 40 40 41 42 42 42 42 42 43 43 43 44 45 46 46 47 48 49 50 51 50 50 49 48 48 47 47 46 47 47 46 46 46 45 45 43
37 38 38 39 39 40 40 41 42 42 43 44 43 43 44 44 44 45 46 47 47 48 48 49 50 51 51 50 49 48 48 47 47 47 47 47 47 46 46 46 45 43 42
39 39 40 40 40 41 41 42 43 44 44 44 44 45 45 46 47 47 48 48 48 49 49 50 50 50 50 49 48 48 48 47 47 47 47 47 47 47 46 45 43 42 41

GEFSGL_500_meanwind_186.txt.gz
Wind_Speed
8 8 7 7 6 6 5 5 5 5 6 6 6 6 7 8 8 9 9 10 11 12 12 12 12 13 13 12 12 12 12 12 11 10 9 9 9 9 11 12 13 13 15
9 8 8 7 7 7 6 6 6 6 6 6 7 7 7 8 9 9 10 11 11 12 12 13 13 14 14 14 13 13 12 12 12 12 10 10 10 10 11 12 14 15 16
10 9 8 8 8 8 7 7 7 7 7 7 8 8 9 9 10 10 11 12 12 13 13 14 14 14 14 14 14 13 13 13 13 13 12 11 11 12 13 14 15 16 17
11 10 9 9 8 8 8 8 8 8 8 9 9 10 10 11 11 11 12 13 13 14 15 15 15 15 15 15 14 14 14 14 14 13 13 13 13 13 14 14 16 17 18
11 11 10 9 9 9 9 9 9 10 10 10 10 11 11 12 12 13 14 14 15 15 16 16 17 17 16 16 16 16 16 15 15 14 15 15 15 15 16 16 17 18 18
12 11 11 10 10 11 11 10 11 11 11 11 12 12 13 13 14 14 15 16 17 17 18 18 18 18 18 18 18 18 17 17 17 16 16 17 17 17 17 19 18 20 20
12 12 12 11 11 12 12 12 12 12 12 13 13 14 14 15 15 16 17 18 18 19 19 20 20 20 20 20 19 19 18 18 18 19 19 19 19 19 20 20 21 22 23
14 14 13 13 13 13 13 13 14 14 14 14 15 15 16 16 17 18 19 20 20 20 21 21 22 22 22 21 21 20 20 20 20 21 21 21 22 22 22 23 24 25 25
16 16 15 15 15 15 15 15 15 16 16 16 17 17 18 18 19 19 20 21 22 22 22 23 23 24 23 23 22 22 22 22 22 23 24 24 24 25 25 26 26 27 28
17 17 16 16 17 17 16 16 17 17 18 18 19 19 19 20 21 21 22 23 23 24 24 24 25 25 24 24 24 24 24 24 25 26 27 27 27 28 28 28 29 30 30
18 18 18 18 18 18 18 18 19 19 20 20 20 21 21 22 23 23 24 24 24 25 25 25 26 26 26 25 25 25 26 27 27 28 29 29 30 30 30 31 32 32 32
19 19 20 19 19 19 20 20 20 21 21 22 23 23 23 24 24 25 25 26 26 26 27 27 27 27 27 27 27 27 28 29 29 30 31 32 32 33 33 33 33 34 34
21 21 21 21 21 21 22 22 22 22 23 24 24 24 25 26 26 27 27 28 28 28 29 29 29 29 28 28 29 29 30 30 31 32 32 33 33 34 35 35 35 36 36
22 22 22 22 23 23 23 23 24 24 25 25 26 26 27 28 28 28 29 30 29 29 29 30 30 29 30 30 31 31 32 33 33 34 34 34 35 35 36 37 37 38 38
24 24 23 24 24 24 24 25 25 26 26 27 28 28 29 30 30 30 31 32 32 32 32 32 32 32 32 32 33 34 35 36 36 36 36 37 37 38 38 39 39 40 41
25 25 25 26 26 26 26 26 27 27 28 29 29 29 30 31 31 31 32 33 33 33 33 33 33 33 33 34 35 36 37 38 38 38 38 39 40 40 40 41 41 42 42
26 26 27 27 27 27 27 27 28 29 29 30 31 31 32 32 32 33 33 33 34 34 35 35 36 36 36 37 37 38 39 39 39 40 40 41 42 42 43 43 44 44 44
28 28 28 28 28 28 29 29 30 30 31 32 33 33 34 34 34 35 35 35 35 36 37 37 37 38 38 39 39 40 41 41 41 42 42 43 44 44 45 45 46 46 46
29 29 29 29 30 30 31 31 32 33 33 34 35 35 36 36 36 37 37 37 38 38 39 39 39 39 40 40 41 42 42 43 43 44 44 45 45 46 47 47 48 47 47
30 30 30 31 31 32 32 33 34 34 35 36 36 36 37 37 37 38 39 39 40 40 41 41 41 41 42 42 43 43 44 44 45 45 45 46 46 47 48 48 49 49 48
31 32 32 33 33 34 34 35 35 36 36 36 37 38 38 39 39 40 41 41 41 42 42 42 42 42 43 44 44 44 44 45 45 46 46 47 47 48 48 49 49 49 48
32 33 34 34 35 36 36 37 37 37 38 38 39 39 40 40 41 42 42 42 43 42 42 42 43 43 44 44 45 45 44 45 46 47 48 48 49 49 50 49 49 48 47
34 35 35 36 36 37 37 38 39 39 39 40 40 41 42 42 42 42 43 43 43 43 43 43 43 44 44 44 45 46 46 47 48 49 49 49 50 51 50 50 49 48 47
36 36 36 36 37 37 38 38 39 39 40 40 41 41 42 42 43 43 44 44 43 43 43 44 44 44 44 45 46 47 47 48 49 50 50 51 52 51 51 49 48 48 47
36 37 37 37 38 38 39 40 40 40 41 41 41 42 42 43 43 43 44 44 44 44 44 45 45 46 45 46 47 48 49 49 50 51 52 52 52 51 50 49 48 47 47
38 38 39 39 40 40 41 41 41 42 42 42 43 44 43 43 43 44 44 45 45 45 45 46 47 47 47 48 48 49 49 49 50 51 52 52 51 50 49 48 47 46 45

GEFSGL_500_meanwind_192.txt.gz
Wind_Speed
12 12 11 10 9 8 8 8 7 7 6 6 6 7 7 7 7 7 8 9 9 10 10 10 11 11 11 12 12 12 12 13 13 14 13 13 13 13 14 14 14 15 16
12 12 11 11 10 9 9 8 8 7 7 7 7 7 7 7 8 8 9 10 10 10 11 11 12 12 13 13 13 13 14 14 15 15 16 15 15 14 14 15 16 16 17
13 13 12 11 10 10 9 9 8 8 8 8 8 8 8 8 8 9 10 11 11 12 12 13 13 14 14 14 14 15 15 15 16 16 16 16 16 16 16 16 17 17 18
14 13 12 11 11 10 10 9 9 9 9 9 8 9 9 9 10 10 11 12 12 13 13 14 14 15 15 16 16 16 16 17 17 17 17 17 17 17 17 17 18 18 19
15 14 13 12 12 11 10 10 9 9 9 9 10 10 10 10 11 12 12 13 14 14 14 15 16 16 17 17 17 18 18 18 18 18 18 18 18 18 18 19 19 19 19
16 15 15 14 13 12 11 11 11 11 11 11 11 11 11 12 12 13 14 14 15 15 16 17 17 17 18 19 19 19 19 19 19 19 19 19 19 20 20 20 20 21 21
15 15 15 15 15 14 13 13 12 12 12 12 12 13 13 13 14 15 15 16 16 17 18 18 19 19 20 20 20 21 21 21 20 20 20 20 20 20 21 22 22 22 23
16 17 17 16 16 16 15 14 14 14 14 14 14 14 15 15 15 16 17 17 18 19 19 20 20 21 21 21 22 21 21 22 22 21 21 21 21 21 21 22 23 23 24
16 17 17 17 17 16 16 16 16 16 16 16 16 16 16 17 17 18 18 19 19 20 21 21 22 22 23 23 23 23 23 23 23 22 23 23 23 23 24 24 24 25 26
18 18 18 18 18 18 18 17 17 17 17 17 17 17 18 18 19 19 20 20 20 21 21 22 23 24 24 25 25 24 24 24 23 23 23 24 24 24 24 25 26 26 27
19 19 19 19 19 19 19 19 19 19 19 19 19 19 19 20 20 21 21 22 22 23 23 24 24 25 25 26 26 26 26 25 25 25 25 26 26 26 27 27 28 29 30
20 20 20 21 21 21 21 21 21 21 20 21 21 21 21 21 22 22 23 24 25 25 26 26 26 27 27 27 27 27 27 27 27 27 28 28 28 29 29 30 31 31 32
21 22 22 22 22 22 22 22 23 22 22 22 23 23 23 23 23 24 25 25 26 27 27 28 28 28 29 29 29 28 28 28 29 29 30 30 31 31 31 32 33 33 34
22 22 22 23 23 24 24 24 24 23 24 24 24 24 24 25 25 26 26 26 27 28 28 29 29 30 30 30 30 30 30 30 31 31 32 32 33 33 34 34 34 35 36
23 23 23 24 24 25 25 25 25 25 25 26 26 26 26 26 26 27 27 28 28 29 30 30 31 30 31 31 31 31 32 32 33 33 33 34 34 35 35 36 36 37 38
24 24 25 25 26 26 27 27 27 27 28 28 28 28 28 28 28 28 29 29 30 31 32 32 32 32 32 32 33 33 34 34 34 34 35 35 36 36 37 37 38 39 40
25 26 26 26 27 27 28 28 29 29 30 30 29 29 30 30 30 30 31 32 32 33 33 33 33 33 34 35 35 35 35 36 36 37 37 38 38 38 39 39 40 40 41
27 28 27 28 28 29 29 30 30 30 30 30 30 30 31 31 32 32 33 34 34 34 35 35 35 36 36 37 37 37 37 38 38 39 39 40 40 41 41 41 42 42 43
28 28 28 29 29 30 30 30 31 31 31 31 31 31 32 32 33 34 34 35 35 36 36 37 37 37 38 38 38 39 39 40 40 41 41 41 42 42 42 43 43 44 45
29 29 29 29 30 30 31 32 32 32 32 32 33 33 33 34 34 35 36 36 37 37 37 38 38 38 39 39 40 40 41 41 41 42 42 42 43 43 44 44 44 45 46
30 30 30 31 31 31 31 32 32 33 33 33 34 35 35 36 36 36 37 37 38 38 38 39 39 39 40 40 41 41 41 42 42 42 42 43 43 44 45 45 46 47 48
32 32 32 32 33 33 33 34 34 35 35 35 36 36 36 37 37 37 38 38 38 38 39 39 40 40 41 41 41 42 42 42 42 42 43 44 44 45 45 46 47 48 49
33 33 34 34 35 35 35 35 36 36 36 36 37 37 37 37 38 38 39 39 39 40 40 41 41 41 42 42 42 42 43 43 43 43 44 44 45 45 46 47 48 49 49
34 35 36 36 36 35 36 36 36 36 37 37 37 37 37 38 39 39 40 40 40 41 41 41 41 41 41 42 42 43 43 43 44 44 45 45 45 46 47 47 48 48 48
35 36 36 36 36 36 36 36 36 36 37 37 37 38 38 39 39 40 40 41 42 42 42 42 42 42 42 43 43 44 43 44 44 45 46 46 46 46 47 47 48 48 48
36 37 37 37 37 37 37 37 37 37 38 38 38 39 40 40 41 41 41 42 42 42 42 42 43 44 44 44 45 45 45 45 46 47 47 46 46 46 47 47 47 47 47

GEFSGL_500_meanwind_198.txt.gz
Wind_Speed
9 9 9 9 9 9 9 8 8 8 9 9 9 9 9 9 9 9 10 10 10 10 10 11 12 12 12 13 13 13 14 14 15 15 15 16 17 16 16 17 17 17 17
10 10 10 8 8 9 9 9 9 9 9 9 10 10 10 10 10 10 10 11 11 11 11 12 12 12 13 13 14 14 15 15 16 16 16 17 18 18 17 17 17 17 17
11 11 11 10 10 10 10 10 10 9 9 9 10 10 10 11 11 11 11 11 11 12 12 13 13 13 14 14 15 15 16 16 17 17 18 19 19 19 19 18 18 18 18
12 12 12 11 11 11 11 11 10 10 10 11 11 11 11 12 12 13 13 13 13 13 13 14 14 14 15 15 16 16 17 18 18 19 20 20 20 20 20 20 19 18 18
13 13 13 13 13 12 12 12 12 12 12 12 12 12 13 13 14 14 14 14 14 14 15 15 15 15 16 16 17 18 19 19 20 20 21 21 21 21 20 21 21 20 20
15 15 15 14 14 14 14 13 13 13 13 13 13 13 14 14 15 15 15 15 15 16 16 16 16 17 17 18 19 20 20 21 21 22 22 22 22 22 22 22 21 21 21
15 15 15 15 15 15 15 15 15 15 15 15 15 15 16 16 16 17 16 17 17 17 18 18 19 18 19 20 21 22 22 23 23 23 24 24 23 23 23 22 22 22 23
15 16 16 16 16 16 16 16 16 16 16 16 16 17 17 17 17 17 18 18 18 19 19 19 20 21 21 22 22 23 24 24 25 25 25 25 24 24 23 23 23 23 23
15 16 16 17 17 17 16 17 16 16 17 17 17 17 18 18 18 18 19 19 19 20 21 21 22 22 24 24 24 25 25 26 26 26 26 25 25 25 24 24 24 24 24
16 17 17 18 18 18 18 18 18 17 18 18 18 19 20 20 20 20 20 21 22 22 22 23 24 24 25 26 26 27 27 27 27 27 27 27 26 26 26 26 26 26 26
17 18 18 19 19 19 20 20 20 19 20 20 20 20 21 21 21 21 22 23 23 23 24 25 25 26 27 28 28 28 28 28 28 28 28 28 28 27 27 28 28 28 28
19 19 19 20 21 20 21 21 21 20 21 21 21 21 22 22 22 23 24 24 24 25 26 26 27 27 28 28 29 29 29 29 29 29 30 29 29 29 29 30 30 30 30
20 20 21 22 22 22 22 22 21 21 21 22 22 22 23 23 24 24 25 25 25 26 27 28 28 29 29 29 30 30 30 30 31 31 31 31 31 31 32 32 32 32 33
21 22 22 23 23 23 23 23 22 22 22 23 23 24 24 25 26 26 27 27 27 28 29 29 29 30 30 30 31 31 31 32 32 32 32 32 32 33 33 34 34 34 34
23 23 23 23 24 24 23 23 23 23 24 25 25 26 26 27 28 28 28 29 29 29 30 30 31 31 31 32 32 33 33 33 33 34 34 34 34 35 35 35 35 36 36
24 24 24 24 24 24 24 24 25 25 26 26 26 27 28 28 29 29 30 31 31 31 31 31 32 32 33 33 34 34 34 35 35 36 36 36 36 37 37 37 37 37 37
24 24 24 24 24 24 24 25 25 26 27 27 27 28 29 29 30 30 31 32 33 33 33 33 34 34 35 35 35 35 36 36 37 37 38 38 38 38 39 39 39 39 39
25 25 25 25 25 26 26 26 26 27 27 27 29 30 30 31 31 31 32 33 33 33 34 34 35 35 35 36 36 37 37 38 38 39 39 39 39 39 39 39 39 40 40
26 26 26 27 27 27 27 27 27 28 28 29 29 30 31 32 32 32 33 33 34 34 34 35 36 36 36 36 37 38 38 39 39 40 40 40 40 40 40 40 40 41 41
26 27 27 28 28 28 29 29 29 30 30 31 31 32 33 33 33 34 34 34 35 35 36 37 37 37 37 37 38 39 39 40 40 41 40 41 41 41 41 41 41 42 42
28 28 29 29 30 30 30 30 31 32 32 33 33 34 34 35 35 35 35 36 36 37 37 38 39 39 39 39 39 40 40 41 42 42 42 42 42 42 42 43 43 43 43
30 30 30 31 32 32 32 33 33 34 34 35 35 36 36 37 37 37 37 37 38 38 39 40 40 40 40 40 41 41 41 42 42 43 43 43 42 43 43 43 44 44 44
32 32 33 33 33 34 35 35 36 36 36 37 38 38 38 38 38 38 39 39 39 40 41 41 41 40 41 41 42 42 42 43 43 43 44 44 44 44 44 44 44 44 45
34 34 35 35 36 36 36 37 37 37 38 38 39 39 39 40 40 40 40 40 40 41 41 41 40 40 41 41 42 42 43 44 44 44 45 45 45 44 44 45 45 45 45
36 36 37 38 38 38 38 38 38 39 39 40 40 40 40 40 40 40 40 40 41 41 41 41 41 42 42 42 43 43 44 45 45 45 45 44 44 44 45 45 45 45 45
37 38 39 39 39 39 39 39 39 39 40 40 40 40 40 40 40 40 41 41 41 41 41 41 42 42 42 44 44 45 45 46 46 46 46 45 45 45 45 45 45 45 45

GEFSGL_500_meanwind_204.txt.gz
Wind_Speed
11 11 10 10 10 10 9 9 9 8 8 8 9 8 8 8 8 8 9 9 9 10 10 10 11 12 12 12 12 13 13 13 14 14 15 15 16 16 17 17 17 17 18
11 11 11 10 10 10 10 10 10 10 9 9 9 9 8 8 8 9 9 10 10 11 11 11 12 13 13 13 14 14 14 15 15 16 16 17 17 17 18 18 18 18 19
12 12 12 12 11 11 11 10 10 10 10 10 9 9 9 9 9 10 10 11 12 12 12 13 13 14 14 15 15 15 16 17 17 18 18 18 18 18 19 19 19 20 20
13 13 13 13 12 12 11 11 11 11 11 10 9 10 10 10 11 11 12 12 13 13 13 14 14 15 15 16 16 17 17 18 18 19 19 19 20 20 20 20 20 20 21
13 13 14 14 14 13 13 12 12 12 12 12 11 12 12 12 12 13 13 13 13 14 14 15 15 16 16 17 18 18 19 19 19 20 20 20 21 21 21 21 21 21 22
14 14 14 15 15 14 14 14 14 14 14 13 14 13 14 14 14 15 15 15 15 15 15 16 17 18 18 19 19 19 20 20 21 21 21 21 22 22 22 22 22 23 23
15 15 15 16 16 15 15 15 15 15 15 15 15 15 15 15 16 16 16 16 16 17 17 18 19 19 20 20 20 21 21 22 22 22 22 22 23 23 24 24 24 24 24
16 16 16 16 16 16 16 16 16 16 16 16 16 16 16 16 17 17 17 17 18 18 19 19 20 21 21 21 22 22 22 22 23 24 24 24 24 24 24 25 25 25 24
16 16 16 16 17 17 17 18 17 17 17 17 17 17 17 18 18 19 19 19 19 20 20 21 22 22 22 22 22 23 24 24 24 25 25 25 25 25 26 26 26 26 26
16 17 16 17 17 17 17 17 17 18 18 18 18 18 19 19 19 20 20 20 20 21 21 22 23 23 23 23 24 24 25 25 26 26 25 25 25 26 27 27 27 27 27
16 17 17 17 17 17 17 17 18 18 18 18 19 19 20 20 20 21 21 21 21 22 22 23 23 23 24 24 25 26 26 27 27 27 27 27 27 27 28 29 29 29 29
17 18 18 19 19 19 18 19 19 19 19 20 20 21 21 21 21 22 22 22 23 23 24 24 24 24 25 26 26 27 28 28 28 28 28 28 28 28 29 29 30 30 30
18 19 19 20 20 20 20 20 20 21 21 21 22 22 22 22 22 23 23 24 24 24 24 25 25 26 26 27 27 28 29 29 29 28 28 29 29 30 30 31 31 32 32
19 19 20 20 21 21 21 21 22 22 22 22 22 23 23 23 23 24 24 25 26 26 27 27 27 27 27 28 29 30 30 30 30 29 29 30 31 31 32 33 33 33 34
19 20 20 21 21 21 22 22 22 22 23 23 24 24 24 25 25 25 25 26 27 27 27 27 28 28 29 29 31 31 31 31 31 31 32 33 33 34 34 35 35 36 36
22 22 22 22 23 23 24 24 24 24 25 26 26 26 26 26 27 27 27 28 28 28 29 29 30 30 31 31 32 32 32 33 33 34 34 35 36 36 36 37 37 38 38
23 23 24 24 24 25 25 26 26 27 27 27 28 28 29 28 28 29 29 29 30 30 30 31 31 32 33 33 33 33 34 34 35 35 36 37 37 37 37 38 39 39 39
24 25 25 25 26 27 27 27 28 28 29 29 30 30 30 30 30 31 30 31 31 32 33 33 33 34 34 34 35 35 35 36 36 37 37 37 38 38 39 39 40 40 40
26 26 27 27 28 29 29 29 29 30 31 32 32 32 32 32 33 32 32 33 33 34 34 35 35 35 36 36 36 36 37 38 38 39 38 38 39 40 40 41 41 41 41
27 28 28 29 30 31 31 31 32 32 33 33 32 32 32 32 32 33 33 34 34 35 36 36 37 37 37 37 38 38 38 39 39 40 40 40 41 41 42 42 42 42 42
28 29 29 29 30 30 31 32 32 32 33 33 33 34 34 34 34 34 35 35 36 36 36 37 38 38 38 39 39 39 39 40 40 41 41 41 42 43 43 43 44 44 44
30 30 31 31 31 32 33 33 33 33 34 34 34 34 35 36 36 37 37 37 37 37 38 38 38 38 39 39 39 40 40 41 41 42 42 42 43 44 44 45 45 45 44
32 32 32 32 32 33 33 34 34 34 35 35 35 36 36 36 37 38 38 39 39 39 39 39 39 40 40 40 40 41 41 41 42 42 43 43 44 45 45 45 45 45 45
32 32 32 33 33 34 34 34 34 35 35 36 36 37 37 38 38 39 40 40 40 40 40 41 41 41 41 41 41 42 42 43 43 44 44 44 45 45 45 45 45 45 45
33 32 33 33 34 35 35 36 36 36 37 37 37 38 38 39 40 40 41 41 41 42 42 43 43 43 42 42 43 43 43 44 44 45 45 46 46 46 46 45 45 45 45
34 35 35 36 36 36 36 37 37 37 37 37 37 38 39 40 41 41 42 42 42 43 43 43 43 43 43 43 43 44 44 44 45 45 46 46 46 46 46 46 45 45 45

GEFSGL_500_meanwind_210.txt.gz
Wind_Speed
12 13 13 13 13 13 12 12 12 11 11 11 10 10 11 11 11 11 11 11 11 11 11 11 12 12 13 13 13 13 14 15 15 16 16 17 17 17 18 19 19 19 21
13 13 13 13 13 13 13 13 12 12 11 11 11 11 11 11 11 11 11 12 12 12 12 13 13 13 14 14 14 15 16 16 16 17 17 18 18 18 19 19 20 21 21
12 12 13 13 13 12 12 12 12 11 11 11 11 11 12 12 12 12 12 13 13 13 13 14 14 14 15 15 16 16 17 17 18 18 19 19 20 20 20 21 21 21 22
13 13 13 13 13 13 12 12 13 12 12 12 13 13 13 13 13 13 13 14 14 14 14 15 15 16 17 17 17 17 18 18 19 19 20 20 21 21 22 22 22 22 22
14 14 13 13 14 13 13 13 13 13 13 14 14 14 14 14 14 14 15 15 15 16 16 16 17 18 18 18 19 19 19 20 20 20 21 21 22 22 23 23 23 23 23
14 14 14 14 14 14 14 14 14 14 14 15 14 14 15 15 16 16 16 16 16 17 17 17 18 18 18 19 20 20 21 21 21 22 22 22 23 23 24 24 24 24 24
15 14 15 15 15 15 15 16 16 16 16 16 15 15 16 16 16 16 17 17 17 18 18 18 19 19 20 21 21 22 22 23 23 23 23 24 24 24 25 25 25 25 25
15 15 15 16 16 16 17 17 17 17 17 16 17 17 17 17 17 17 17 18 18 18 19 19 20 21 22 22 23 23 23 23 23 24 24 25 25 25 26 26 25 25 25
15 16 16 17 17 17 17 18 18 18 18 18 18 18 18 18 18 18 18 18 18 19 20 21 21 22 23 23 23 23 23 24 24 24 25 26 26 26 26 26 26 26 26
15 15 15 16 17 17 18 18 18 18 18 19 18 19 19 18 18 19 19 19 20 20 21 22 22 23 23 23 23 23 23 24 24 25 26 27 27 27 27 27 27 27 27
16 16 15 16 16 17 17 18 18 18 19 19 19 19 19 19 20 20 21 21 21 22 22 23 23 24 23 24 24 24 25 25 26 26 27 28 28 28 28 29 29 29 28
17 17 17 17 18 18 18 19 19 19 19 19 20 20 20 20 21 21 22 22 23 23 23 24 24 24 24 24 24 25 26 27 27 28 28 28 29 29 29 29 30 30 30
18 18 18 18 18 19 19 20 20 20 20 20 21 21 21 22 22 22 23 23 24 24 25 25 26 25 25 26 26 26 27 28 28 29 29 30 30 30 30 31 31 31 31
19 20 20 20 20 20 21 21 21 21 22 22 22 23 23 24 24 24 24 25 26 27 27 27 27 26 26 27 28 28 29 29 30 31 31 31 31 31 32 32 33 33 33
21 21 22 22 22 22 23 23 23 23 24 24 24 25 25 25 25 26 26 27 28 28 28 28 28 28 28 29 30 30 31 31 32 33 33 33 33 33 34 34 35 35 36
22 23 24 24 24 24 24 24 24 25 25 26 26 26 26 26 26 27 28 28 29 29 29 29 29 30 30 31 31 32 33 34 34 34 35 35 35 35 35 36 37 37 37
24 24 24 25 25 25 26 26 26 27 27 28 27 28 28 28 29 29 30 31 31 31 30 30 31 32 32 32 33 34 35 36 36 36 36 36 36 37 38 38 38 39 39
25 26 26 26 27 27 27 27 28 28 28 28 28 29 30 30 31 32 33 33 33 32 32 32 33 34 35 35 35 36 37 37 38 38 38 38 38 39 39 39 40 41 41
26 27 28 27 28 28 28 28 29 29 29 29 30 30 31 32 32 33 34 34 34 33 33 34 35 35 37 37 37 38 38 38 39 39 40 40 39 40 40 41 41 42 42
27 27 28 28 28 28 29 29 30 30 31 31 32 32 32 33 34 34 34 34 34 34 35 35 36 37 37 38 38 38 39 39 39 40 40 40 40 41 41 42 42 43 43
27 27 28 28 29 29 30 30 31 31 31 32 33 34 34 35 35 35 35 35 35 36 36 37 38 38 38 39 39 40 40 41 41 41 41 41 41 41 42 43 43 44 44
29 29 29 29 30 31 31 32 32 33 33 34 34 34 34 34 35 35 36 36 37 37 37 38 38 38 38 39 40 41 41 41 41 41 41 41 41 42 42 43 44 45 45
31 31 31 31 32 32 33 33 33 33 33 34 35 35 35 35 36 37 36 36 37 37 38 38 39 39 39 40 41 42 42 42 42 42 42 42 42 43 43 44 45 45 45
33 32 32 32 32 32 33 33 34 34 35 36 36 36 36 36 36 36 36 36 37 38 39 40 40 40 41 42 43 43 43 43 43 43 42 43 44 44 45 45 45 45 45
34 33 33 34 35 35 35 35 35 36 36 37 37 37 37 37 37 37 37 37 38 39 40 40 41 42 42 43 43 43 43 43 43 43 43 44 44 45 45 45 45 45 46
36 36 36 36 36 36 37 36 37 37 37 37 38 38 38 38 38 38 39 39 39 40 40 41 42 42 42 43 43 44 44 44 44 44 45 44 45 45 46 46 45 46 46

GEFSGL_500_meanwind_216.txt.gz
Wind_Speed
12 12 11 11 11 11 11 11 11 11 11 10 10 10 10 10 10 10 10 10 11 12 12 12 12 13 13 13 13 13 14 14 15 15 15 16 16 16 17 17 18 19 19
11 11 11 11 11 11 11 11 11 11 11 11 11 11 11 11 11 11 12 12 12 12 12 13 13 13 14 14 14 15 15 16 16 16 16 16 17 17 17 18 19 20 21
11 12 11 12 12 11 11 11 11 11 11 11 12 12 11 11 11 12 12 12 13 13 13 14 14 14 15 15 15 16 16 17 17 17 17 18 18 18 19 20 20 21 22
12 12 12 12 12 11 12 12 12 13 12 12 12 12 12 12 12 12 13 13 14 14 14 15 15 16 16 16 17 17 17 18 18 18 19 19 19 20 21 21 22 22 23
13 12 13 13 12 12 12 12 13 13 13 14 13 14 14 13 14 14 14 15 14 15 16 16 16 16 17 17 18 18 18 19 19 19 19 20 20 21 22 22 23 23 24
13 13 13 13 13 13 13 13 13 14 14 14 15 15 15 15 16 16 16 15 15 16 17 17 17 17 18 18 19 19 19 19 19 20 20 21 21 22 23 23 23 24 24
13 13 13 13 13 12 12 13 13 14 14 15 15 15 16 16 16 16 17 17 17 17 18 18 18 18 19 19 19 18 18 19 20 20 21 22 22 23 23 23 24 25 25
14 14 14 14 13 13 13 13 13 13 14 15 16 16 16 17 18 18 18 18 18 18 18 18 18 18 19 19 19 18 19 20 21 21 22 23 23 23 24 24 25 26 26
14 14 14 14 14 14 14 14 14 14 15 15 16 17 18 18 19 19 19 18 18 19 19 19 19 19 20 19 19 19 20 21 22 22 23 23 23 24 25 26 26 26 27
15 15 15 15 15 15 16 15 15 16 16 16 16 18 18 19 19 19 19 19 19 19 20 20 20 21 20 20 21 21 21 22 22 23 23 23 24 25 26 27 28 28 28
16 16 16 16 16 16 17 17 16 16 16 17 18 19 19 19 19 19 20 20 20 20 21 21 21 21 21 22 22 22 23 23 23 23 24 25 25 26 27 28 29 29 29
17 17 17 17 17 18 18 18 18 18 18 18 19 19 20 19 20 20 21 22 22 22 22 22 22 22 22 23 24 24 24 25 25 25 26 27 27 28 29 30 30 30 30
17 18 18 18 18 18 18 18 18 19 19 19 19 20 20 20 21 21 22 23 24 24 23 23 24 24 25 25 26 26 26 27 27 28 29 29 30 30 31 31 32 32 32
18 18 18 18 18 19 19 19 20 20 21 21 21 21 21 21 21 22 23 23 24 25 25 25 25 26 27 27 27 27 28 28 29 30 31 32 32 33 33 34 34 34 34
19 19 19 19 19 19 20 20 21 21 22 22 22 22 22 22 23 24 24 24 25 26 26 27 27 28 28 29 29 30 30 31 31 32 33 34 34 35 35 36 36 36 36
21 21 21 21 21 21 21 22 22 22 23 23 23 23 24 25 25 25 25 26 27 28 28 28 28 29 29 29 30 31 32 33 33 34 35 35 36 37 37 37 38 38 39
23 23 23 23 23 23 23 23 24 24 25 25 25 25 26 26 26 27 27 28 29 29 29 29 29 30 30 31 32 32 33 34 35 35 35 36 37 38 38 38 39 39 40
24 24 24 25 25 25 25 25 25 26 26 27 27 27 27 27 27 28 29 30 30 30 30 30 30 31 32 32 33 33 34 35 35 36 37 38 39 39 39 39 40 40 41
26 26 26 27 27 27 27 27 27 28 28 28 28 28 28 29 30 30 31 31 31 31 31 32 33 33 33 34 35 35 36 36 37 37 38 39 40 40 40 40 40 41 41
28 28 28 28 28 28 29 29 29 29 29 29 29 29 29 30 30 31 31 32 32 33 33 34 35 35 36 37 37 37 38 38 39 39 39 39 40 41 41 41 41 41 42
30 30 30 30 30 30 30 30 30 30 30 30 31 31 31 31 32 32 33 34 34 34 35 37 37 38 38 38 39 39 39 39 40 40 41 41 41 41 41 42 42 42 43
32 31 31 31 32 32 32 32 31 31 31 31 32 31 32 33 34 34 35 37 37 36 36 37 38 38 38 38 39 40 40 40 41 42 42 42 43 42 42 42 42 43 43
33 33 33 33 33 33 32 32 32 32 33 32 32 33 34 34 35 36 36 37 37 37 37 37 38 38 39 40 40 41 41 41 42 42 42 42 43 43 43 43 43 43 43
34 34 34 34 34 34 33 33 33 33 33 33 34 34 35 35 36 36 37 37 37 37 38 38 39 39 39 40 40 41 41 42 42 42 42 42 43 43 43 44 43 43 42
34 34 34 35 34 34 34 34 34 34 34 34 35 35 36 36 37 37 38 38 37 37 38 38 39 39 39 40 41 41 41 41 41 42 42 43 43 43 43 44 43 43 43
35 35 34 34 34 35 35 35 35 35 35 35 36 36 36 37 38 38 38 38 38 38 39 39 40 40 40 41 41 41 41 42 42 42 43 43 43 43 43 43 43 43 44

GEFSGL_500_meanwind_222.txt.gz
Wind_Speed
11 11 11 10 10 10 10 10 10 10 10 10 10 10 10 10 10 10 10 11 11 11 12 13 14 15 15 15 16 16 16 17 17 17 17 18 18 18 17 17 17 18 18
11 11 11 11 10 10 10 10 10 10 10 10 10 10 10 11 11 11 11 11 11 12 13 14 14 15 16 16 17 17 17 17 18 18 17 18 18 18 18 18 18 19 19
12 11 11 11 11 10 11 10 10 10 10 11 11 11 11 11 12 12 12 12 12 13 14 15 16 16 17 17 18 18 18 18 18 18 18 18 19 19 19 19 19 20 20
12 11 11 11 11 11 11 11 11 11 11 11 12 12 12 12 12 13 13 13 14 14 15 16 16 17 18 18 18 18 19 18 18 18 19 19 19 20 20 20 20 21 21
11 11 11 11 11 11 11 12 12 11 11 12 12 13 13 13 13 14 14 14 15 15 16 16 17 18 18 19 19 19 19 19 19 19 19 20 20 20 20 21 21 21 22
11 11 11 11 11 11 11 12 11 11 11 12 12 13 13 13 14 15 15 15 16 17 17 17 18 19 19 19 19 19 19 20 20 20 20 20 21 21 21 22 22 22 22
12 12 12 12 11 12 12 12 12 12 12 12 12 13 13 14 14 15 15 16 17 17 17 18 19 19 19 19 19 19 20 21 21 21 21 21 22 22 23 23 23 23 24
12 12 13 13 13 13 13 13 13 12 13 13 13 14 14 15 15 15 16 17 17 18 18 19 19 20 19 20 20 20 21 21 22 23 23 23 23 23 23 24 24 24 25
13 13 14 14 14 14 14 14 14 14 14 14 15 15 16 16 16 16 17 18 19 19 20 20 20 20 21 21 22 22 22 23 23 24 24 24 25 25 25 25 25 25 25
15 15 15 15 15 15 15 15 14 15 15 15 16 17 18 18 18 18 19 20 20 20 21 21 21 22 22 23 23 24 24 24 24 24 25 25 25 26 27 27 27 28 28
16 16 16 16 16 16 16 16 16 17 17 17 18 18 18 19 19 20 21 21 21 21 21 21 22 23 24 24 24 25 25 25 25 25 26 26 27 28 28 29 30 30 31
17 17 17 18 18 18 17 18 18 18 18 19 19 19 19 20 20 20 20 21 21 22 22 22 23 24 24 24 25 26 26 26 27 27 27 28 29 29 30 31 31 32 33
18 18 19 19 19 19 19 19 19 19 19 19 20 20 20 20 21 21 21 22 22 23 23 23 24 24 25 25 26 26 27 27 28 28 29 29 30 31 31 32 32 33 34
19 19 19 20 20 20 20 20 20 20 20 21 21 21 21 21 22 22 22 23 23 23 24 24 25 26 26 26 26 27 28 29 30 30 30 31 31 32 33 33 34 34 35
20 20 20 20 21 20 20 20 21 21 22 22 23 23 23 23 24 24 25 25 25 25 26 26 27 27 27 28 28 29 29 30 31 32 32 33 33 34 34 35 35 36 36
22 22 22 22 22 21 21 22 22 23 24 24 25 25 26 25 25 27 27 27 27 27 27 28 28 28 29 29 30 31 31 32 33 33 34 34 35 35 36 36 36 37 37
24 23 23 23 23 23 23 24 24 25 25 25 26 26 26 27 27 28 29 29 29 28 28 29 29 30 30 31 32 33 34 34 34 35 36 36 37 37 38 38 38 38 39
25 25 24 25 25 25 25 26 26 26 26 27 27 28 29 29 29 29 30 29 29 29 29 29 30 31 32 33 34 34 35 35 36 36 37 37 38 38 38 38 39 39 39
27 27 27 27 27 27 27 28 28 28 28 28 28 29 30 31 31 31 31 31 31 31 31 32 33 34 35 35 35 35 35 36 36 37 37 38 38 38 38 39 39 39 40
29 30 30 30 29 29 29 30 30 30 30 30 30 30 31 31 32 32 32 32 33 33 33 34 35 36 36 36 36 36 36 37 37 38 39 39 39 39 39 40 40 40 41
32 32 32 32 32 32 31 32 32 32 32 32 32 32 33 32 32 33 33 33 34 35 35 36 37 37 37 37 37 37 37 38 38 39 39 39 40 40 41 41 41 41 41
34 34 33 33 34 34 33 33 33 34 34 33 33 33 33 33 33 33 34 34 35 36 36 37 37 38 38 37 37 38 39 39 40 40 40 40 41 40 40 41 41 42 42
36 35 35 35 35 35 35 34 34 34 34 34 34 34 34 33 34 35 35 36 36 37 37 37 37 37 38 38 38 39 39 40 41 41 42 42 42 41 41 41 42 42 42
36 36 36 36 35 35 35 36 35 35 35 35 34 34 34 34 35 36 36 37 37 37 37 37 38 38 39 39 39 39 40 41 41 42 42 41 41 41 41 41 42 42 43
37 37 37 36 35 36 36 36 36 36 36 36 36 36 36 36 37 38 38 38 37 37 37 38 39 39 39 39 39 40 41 42 42 42 42 42 42 42 41 42 43 43 43
38 37 36 36 35 35 36 36 36 36 36 36 36 37 37 37 37 38 38 38 37 38 38 38 39 39 39 40 40 41 41 41 42 42 42 42 42 42 42 43 43 44 44

GEFSGL_500_meanwind_228.txt.gz
Wind_Speed
10 10 10 10 10 10 11 11 10 10 10 10 10 10 10 9 9 8 9 10 10 10 11 11 11 11 12 13 13 13 14 14 15 15 15 15 15 16 16 16 17 17 18
11 11 10 10 10 10 11 10 10 10 10 10 10 10 10 9 9 9 10 11 11 11 11 12 12 13 13 13 13 14 15 15 16 16 15 16 16 16 17 17 18 18 18
11 10 10 10 11 11 11 11 10 10 10 10 10 10 10 10 10 10 11 12 12 12 12 13 13 13 13 14 14 15 15 16 16 16 16 17 17 17 18 18 19 19 19
11 11 11 11 11 11 11 11 11 11 10 10 10 10 10 10 11 11 11 12 13 13 13 14 14 14 15 15 16 16 16 16 17 17 17 17 18 18 19 20 20 20 19
12 12 11 11 11 10 10 10 11 11 11 10 10 11 11 11 11 11 12 12 12 13 14 15 15 15 15 16 16 16 17 17 17 17 18 19 19 19 20 20 21 21 21
13 13 12 12 11 11 11 11 11 11 11 11 11 11 11 12 12 12 13 13 13 14 15 15 15 16 16 17 17 18 19 19 19 19 19 20 21 21 21 21 21 21 21
14 14 13 13 12 13 13 12 12 11 11 12 12 12 13 12 13 13 13 14 14 15 15 16 16 17 18 18 18 19 20 20 21 21 21 21 21 21 22 22 22 22 22
14 14 14 14 13 13 13 13 13 13 12 12 13 13 13 13 14 14 15 15 15 16 16 16 17 18 19 19 20 20 21 21 22 22 22 22 22 23 23 24 24 24 24
16 16 15 15 14 14 14 14 13 14 14 13 14 14 14 14 15 15 16 17 17 18 18 19 19 19 20 20 20 21 21 22 22 23 24 24 24 24 24 25 25 25 26
17 17 17 16 15 15 15 15 14 14 15 15 15 15 16 16 16 17 18 19 19 19 19 20 20 20 20 21 22 22 23 23 24 25 25 26 26 26 26 26 27 27 28
18 18 18 17 16 16 16 15 15 16 16 16 16 16 16 17 18 19 19 20 20 20 21 21 21 21 22 23 24 24 24 25 25 26 26 26 27 27 28 28 29 29 30
19 19 19 18 18 17 17 17 17 17 17 17 17 17 18 18 19 20 20 20 21 21 21 22 22 23 24 24 25 26 26 26 26 26 27 28 28 29 30 30 30 30 31
20 20 19 19 19 18 18 18 18 18 18 19 19 20 20 20 21 21 22 22 22 23 23 23 24 24 25 26 27 28 28 28 27 28 29 30 30 31 31 31 32 32 33
22 21 21 20 20 20 19 19 19 20 20 20 21 22 22 23 23 23 23 23 23 24 25 24 25 26 27 28 28 29 29 29 29 30 30 31 31 31 32 33 34 34 35
24 23 22 22 21 21 21 21 21 21 21 22 23 23 23 23 24 24 24 25 25 26 26 27 27 28 29 29 30 30 30 31 31 31 31 31 32 33 34 35 35 35 35
25 25 24 23 23 23 22 22 22 23 23 23 24 24 24 25 26 26 26 27 28 28 28 29 29 29 30 30 31 31 32 32 33 33 33 34 34 35 36 36 36 36 36
27 26 26 25 24 24 24 24 24 24 24 25 25 25 26 26 27 27 28 29 29 29 30 30 31 31 31 32 32 33 33 33 34 34 35 36 36 36 36 36 36 37 37
28 28 28 27 26 26 26 26 26 26 26 26 26 27 28 28 28 28 29 30 30 31 31 31 32 33 33 33 33 34 34 35 35 36 36 37 37 37 37 37 38 38 38
30 29 29 28 28 28 28 28 28 28 28 28 28 29 29 30 30 31 31 32 32 32 32 33 34 34 34 34 34 35 36 36 36 37 37 37 38 39 38 38 38 38 38
31 31 30 30 29 29 29 29 29 29 29 30 30 31 31 31 31 32 32 33 33 33 33 34 35 35 35 35 36 36 37 37 37 37 38 38 39 38 38 38 38 38 38
33 33 33 32 31 30 30 30 30 31 31 32 32 32 33 33 33 33 33 33 33 34 35 35 36 36 35 36 36 37 37 37 38 39 39 39 39 39 39 39 39 39 39
33 33 33 33 32 32 32 32 32 32 33 33 34 34 34 34 34 34 34 35 35 36 36 36 36 36 36 37 38 38 38 39 39 39 39 39 39 39 39 39 40 40 41
34 35 35 34 34 34 34 34 34 34 34 34 34 35 35 35 35 36 35 36 36 36 36 36 36 37 37 38 39 39 40 40 40 40 40 39 39 39 39 40 40 40 41
35 35 35 35 35 35 35 35 35 35 35 35 35 35 35 35 35 36 36 36 36 36 37 37 37 37 38 38 39 39 40 40 41 41 40 39 39 39 40 40 40 40 41
35 36 36 36 36 36 36 37 37 36 36 36 36 36 36 36 36 37 37 37 37 37 37 37 37 38 38 38 39 39 40 40 40 40 39 39 39 40 40 41 41 41 42
36 36 37 37 37 38 38 37 37 37 37 37 37 37 38 38 37 38 38 38 38 38 38 39 39 39 39 40 39 39 39 39 39 39 39 40 40 40 40 40 41 41 41

GEFSGL_500_meanwind_234.txt.gz
Wind_Speed
13 12 12 12 12 11 11 11 11 11 12 12 11 10 10 10 10 9 9 10 9 9 10 10 10 11 11 12 12 12 13 13 14 15 15 15 15 15 15 16 16 17 17
13 13 12 12 12 11 11 12 12 12 12 12 11 11 11 11 10 10 10 10 9 9 10 10 10 11 11 12 12 13 13 14 15 15 16 16 16 16 16 17 17 17 18
13 13 13 13 13 12 12 13 13 13 12 12 12 12 12 12 11 11 11 11 10 10 10 11 11 12 12 13 13 13 14 15 15 16 16 17 16 17 18 18 19 19 19
15 15 15 15 14 13 13 13 13 13 13 13 12 12 12 12 12 11 11 11 11 11 12 13 13 13 13 13 14 15 15 16 17 17 17 17 17 18 19 20 20 20 20
17 16 16 16 15 15 14 14 14 14 14 13 13 13 13 12 12 12 12 12 12 12 13 14 14 14 15 15 15 16 16 17 18 18 18 18 19 20 20 21 21 21 21
16 17 17 17 17 16 15 15 15 15 14 14 14 13 13 13 13 13 13 13 13 14 14 14 15 15 15 16 16 17 17 18 18 19 19 20 20 21 22 23 23 22 22
17 17 18 18 18 18 17 16 16 16 15 15 14 14 14 14 14 14 15 16 15 15 15 16 16 16 17 17 18 18 18 19 19 20 20 21 21 22 23 24 24 24 24
19 18 18 18 18 18 17 17 17 16 16 16 15 15 15 15 15 16 16 16 17 17 17 17 18 18 19 19 19 19 20 20 21 21 21 22 23 23 24 25 25 25 26
20 20 20 19 19 19 18 18 18 17 17 16 16 16 16 16 17 17 17 17 18 18 19 19 20 20 20 20 20 20 21 21 22 22 22 23 24 25 26 26 26 27 27
21 21 21 20 20 20 19 19 18 18 18 18 18 18 17 18 18 18 19 19 19 19 19 20 20 20 20 22 22 21 22 22 23 23 24 25 26 27 27 28 28 28 28
22 22 22 22 21 20 20 20 19 19 19 19 19 19 19 19 19 19 20 20 20 20 21 21 22 22 23 23 23 24 24 24 25 26 27 28 28 29 29 29 29 29 30
23 23 23 23 22 22 21 21 21 21 20 20 20 20 20 20 20 20 21 21 22 22 23 23 24 25 25 25 25 26 26 26 27 28 29 30 30 30 30 30 31 31 31
24 24 24 24 23 22 22 23 22 22 22 21 21 21 21 21 21 22 23 23 23 24 25 26 26 26 26 27 27 27 27 28 29 30 30 31 31 31 32 32 32 32 32
25 26 26 25 24 24 24 23 23 23 23 23 22 22 22 22 23 23 24 24 25 26 26 27 27 28 28 28 28 28 29 30 31 31 31 32 32 33 33 33 33 33 34
26 26 27 27 27 26 26 25 25 25 25 24 24 23 23 24 24 25 25 26 27 27 28 28 28 28 29 29 30 30 31 32 32 32 33 33 34 34 34 34 34 35 35
28 27 27 28 28 28 28 27 27 26 26 26 26 26 26 26 27 27 27 28 29 29 29 29 29 30 30 30 31 32 33 33 34 34 34 35 35 35 35 35 35 35 35
29 28 28 28 29 29 29 29 29 28 28 28 28 28 28 28 29 29 29 30 30 30 30 30 31 31 32 32 33 34 34 34 34 35 35 36 36 36 36 36 35 36 36
30 30 29 30 30 30 30 30 30 30 30 30 30 30 30 30 31 31 31 31 31 31 31 32 33 33 33 34 34 34 34 35 35 36 36 37 37 37 36 36 36 36 36
31 31 31 32 32 32 32 32 32 32 32 32 32 32 32 32 32 32 32 32 32 32 33 33 33 34 34 34 35 35 35 35 36 37 37 38 38 38 37 37 37 37 37
32 32 32 33 33 34 34 34 34 34 33 33 33 33 32 33 33 33 33 33 33 33 34 34 34 35 35 35 36 36 36 36 37 38 38 38 38 38 37 37 37 37 37
33 34 34 35 35 35 35 36 36 35 34 34 33 33 34 34 34 34 34 33 34 34 35 35 35 36 36 36 36 37 37 37 38 39 39 38 38 38 38 38 37 37 37
33 34 34 35 35 36 36 35 35 34 34 34 34 34 34 34 34 35 35 35 35 36 36 36 36 36 37 37 37 37 37 38 39 39 39 39 38 38 38 37 37 37 38
33 34 35 35 35 35 35 35 34 34 34 35 34 35 35 35 35 35 36 36 36 36 36 36 36 36 36 36 37 37 37 38 38 39 39 39 38 38 37 37 37 38 39
34 34 35 35 35 35 35 34 34 34 35 35 36 36 36 36 36 36 36 37 37 37 37 37 37 37 37 37 37 37 38 38 38 38 39 39 38 38 37 37 37 38 39
34 35 34 34 34 34 35 34 35 35 35 36 36 36 37 37 37 37 38 38 38 38 37 37 38 38 38 37 37 38 38 39 39 39 39 38 38 38 38 38 38 39 39
34 34 34 34 34 34 34 34 35 35 36 36 37 37 38 39 39 39 39 39 39 38 38 38 39 39 39 38 38 39 39 39 39 40 40 39 39 38 38 39 39 39 39

GEFSGL_500_meanwind_240.txt.gz
Wind_Speed
14 14 13 13 13 12 12 11 11 10 10 10 10 10 10 10 10 10 10 9 9 8 8 8 8 9 9 9 9 9 9 10 10 11 12 12 12 13 13 13 13 14 15
15 14 14 14 14 14 13 12 12 12 12 11 11 11 11 10 10 10 10 10 9 9 9 9 10 9 9 9 9 10 10 10 11 13 13 13 13 13 14 15 15 16 16
15 15 15 15 14 14 14 14 13 13 12 12 12 12 12 12 11 11 11 11 11 10 10 10 10 10 10 10 10 11 11 12 13 13 14 14 15 15 16 16 17 17 18
16 15 15 15 15 15 15 15 15 14 14 14 13 13 13 13 13 13 13 12 12 12 12 12 12 12 12 12 12 13 13 13 14 14 15 16 16 16 17 17 18 19 19
17 16 17 16 16 17 16 16 16 16 16 16 15 14 14 14 13 13 13 13 13 13 13 13 13 13 13 13 14 14 14 15 15 16 16 17 17 17 18 19 19 20 20
18 18 18 17 17 17 17 17 17 16 16 16 16 15 14 14 14 14 14 14 14 14 14 14 14 14 15 15 15 16 16 17 17 17 18 18 18 19 19 20 21 21 22
20 20 19 19 18 18 18 18 18 17 17 17 16 16 16 15 15 15 15 16 16 16 16 16 16 16 16 17 17 17 18 18 19 19 19 19 20 20 21 22 23 23 24
21 21 21 20 20 20 19 19 19 18 18 18 17 17 16 17 16 16 16 17 17 17 17 17 17 17 18 18 18 18 19 20 20 20 20 21 21 22 23 24 24 24 24
22 22 21 21 21 21 20 20 20 20 20 19 19 18 18 18 17 17 17 17 17 18 18 18 18 19 19 19 19 20 20 21 21 22 22 23 23 23 24 24 25 25 25
22 22 22 22 22 22 22 22 21 21 21 20 19 19 19 19 18 19 19 19 19 19 19 19 20 20 20 21 21 22 22 22 23 23 23 23 24 25 25 26 26 26 26
23 23 23 23 23 23 23 23 22 22 22 21 20 20 20 20 20 20 20 20 20 20 20 21 21 21 21 22 23 23 24 24 24 24 24 25 25 26 27 27 27 28 28
24 24 23 23 24 24 24 23 23 23 23 23 22 21 22 22 21 21 21 21 22 22 22 22 23 23 23 23 24 24 25 25 25 25 25 26 26 27 27 28 28 29 29
25 25 24 25 25 25 25 24 24 24 24 23 23 23 23 23 23 23 23 23 23 23 24 24 24 24 25 25 25 26 26 27 27 27 27 27 28 28 29 29 30 30 31
26 26 26 26 26 26 26 26 26 25 24 24 24 24 24 25 25 25 24 25 25 25 25 25 26 26 26 26 27 28 28 29 29 29 28 29 29 29 30 30 31 31 31
27 27 27 27 27 28 28 27 27 27 26 26 26 27 27 26 26 26 26 26 26 26 26 27 27 28 28 28 29 30 30 30 30 30 30 30 30 31 31 32 32 32 32
29 29 28 29 29 29 29 28 28 29 29 28 28 28 28 28 29 28 28 28 28 28 28 28 28 29 29 30 31 32 32 32 32 32 32 32 32 33 33 33 32 32 32
30 30 30 30 30 30 30 30 30 30 30 30 30 30 30 30 30 29 29 29 29 29 29 29 29 30 30 31 32 33 33 33 33 33 34 34 34 34 34 34 33 34 34
30 31 31 31 31 31 30 30 30 31 31 31 31 31 30 30 30 30 30 30 30 30 30 30 31 31 31 32 33 33 33 33 33 34 34 34 35 35 35 35 35 36 36
31 31 31 31 31 31 31 31 31 32 32 32 32 31 32 32 32 32 31 31 31 31 31 32 32 33 33 33 33 33 33 34 34 34 35 35 35 35 36 36 37 38 38
32 32 32 31 31 31 32 32 32 33 34 34 34 33 33 33 33 33 33 33 33 33 32 32 32 33 33 34 34 34 35 36 36 36 36 36 36 37 37 38 38 38 37
32 32 32 32 33 33 33 33 33 34 34 34 34 34 34 34 35 35 36 35 34 34 33 33 33 34 34 35 35 36 37 37 37 37 37 37 37 38 38 38 38 38 37
33 33 33 34 34 34 34 34 34 35 36 35 35 35 35 36 36 36 36 35 35 35 35 35 35 35 35 36 37 38 38 37 37 37 38 38 38 38 38 38 38 38 37
33 33 33 34 34 34 34 34 34 34 35 35 35 35 36 36 36 35 35 35 35 35 36 36 36 36 37 38 39 38 38 37 37 37 38 38 38 38 38 38 38 37 37
33 33 33 33 33 34 34 34 34 34 35 35 35 35 35 35 35 35 35 36 36 36 36 37 37 37 38 39 38 38 37 37 37 37 37 37 37 38 38 38 38 38 38
32 33 33 34 34 35 35 35 35 35 35 35 35 35 35 36 36 36 36 37 38 38 37 37 38 38 38 38 38 38 38 37 38 38 38 38 38 38 39 39 38 38 38
33 34 35 35 35 35 36 36 36 36 36 36 35 36 36 36 36 37 37 37 37 38 38 38 38 39 39 38 38 38 39 39 39 39 39 38 38 38 39 39 39 39 38